| time (UTC) | temp F | wind direction | speed MPH | gust MPH | rain 1hr in | rain 24hr in | rain mn in | humidity % | barometer mb |
| 20260507192604 | 52 | 146 | 0.0 | 3.0 | 0.00 | 0.00 | 0.00 | 81 | 1015.6 |
| 20260507192503 | 52 | 144 | 0.0 | 4.0 | 0.00 | 0.00 | 0.00 | 81 | 1015.6 |
| 20260507192416 | 52 | 144 | 0.0 | 4.0 | 0.00 | 0.00 | 0.00 | 81 | 1015.6 |
| 20260507192403 | 52 | 150 | 0.0 | 4.0 | 0.00 | 0.00 | 0.00 | 81 | 1015.4 |
| 20260507192306 | 52 | 162 | 0.0 | 4.0 | 0.00 | 0.00 | 0.00 | 81 | 1015.6 |
| 20260507192104 | 52 | 159 | 0.0 | 4.0 | 0.00 | 0.00 | 0.00 | 81 | 1015.6 |
| 20260507192003 | 52 | 157 | 0.0 | 4.0 | 0.00 | 0.00 | 0.00 | 81 | 1015.6 |
| 20260507191904 | 52 | 155 | 1.0 | 4.0 | 0.00 | 0.00 | 0.00 | 81 | 1015.5 |
| 20260507191803 | 52 | 153 | 1.0 | 4.0 | 0.00 | 0.00 | 0.00 | 81 | 1015.6 |
| 20260507191716 | 52 | 153 | 1.0 | 4.0 | 0.00 | 0.00 | 0.00 | 81 | 1015.6 |
| 20260507191703 | 52 | 150 | 1.0 | 4.0 | 0.00 | 0.00 | 0.00 | 81 | 1015.6 |
| 20260507191615 | 52 | 150 | 1.0 | 4.0 | 0.00 | 0.00 | 0.00 | 81 | 1015.6 |
| 20260507191603 | 52 | 151 | 1.0 | 4.0 | 0.00 | 0.00 | 0.00 | 81 | 1015.5 |
| 20260507191417 | 52 | 150 | 1.0 | 4.0 | 0.00 | 0.00 | 0.00 | 81 | 1015.7 |
| 20260507191303 | 52 | 140 | 0.0 | 2.0 | 0.00 | 0.00 | 0.00 | 81 | 1015.6 |
| 20260507191118 | 52 | 140 | 0.0 | 2.0 | 0.00 | 0.00 | 0.00 | 81 | 1015.7 |
| 20260507191103 | 52 | 140 | 0.0 | 2.0 | 0.00 | 0.00 | 0.00 | 81 | 1015.4 |
| 20260507191003 | 52 | 140 | 0.0 | 2.0 | 0.00 | 0.00 | 0.00 | 81 | 1015.4 |
| 20260507190803 | 52 | 139 | 0.0 | 3.0 | 0.00 | 0.00 | 0.00 | 80 | 1015.5 |
| 20260507190704 | 52 | 139 | 0.0 | 3.0 | 0.00 | 0.00 | 0.00 | 80 | 1015.5 |
| 20260507190603 | 52 | 140 | 0.0 | 3.0 | 0.00 | 0.00 | 0.00 | 80 | 1015.5 |
| 20260507190504 | 52 | 141 | 1.0 | 3.0 | 0.00 | 0.00 | 0.00 | 80 | 1015.5 |
| 20260507190404 | 52 | 144 | 1.0 | 3.0 | 0.00 | 0.00 | 0.00 | 80 | 1015.4 |
| 20260507190303 | 52 | 144 | 1.0 | 3.0 | 0.00 | 0.00 | 0.00 | 80 | 1015.6 |
| 20260507190203 | 52 | 145 | 1.0 | 3.0 | 0.00 | 0.00 | 0.00 | 80 | 1015.4 |
| 20260507190005 | 52 | 149 | 1.0 | 3.0 | 0.00 | 0.00 | 0.00 | 80 | 1015.5 |
| 20260507185916 | 52 | 149 | 1.0 | 3.0 | 0.00 | 0.00 | 0.00 | 80 | 1015.5 |
| 20260507185903 | 52 | 153 | 0.0 | 3.0 | 0.00 | 0.00 | 0.00 | 80 | 1015.4 |
| 20260507185803 | 52 | 155 | 0.0 | 3.0 | 0.00 | 0.00 | 0.00 | 80 | 1015.5 |
| 20260507185617 | 53 | 150 | 0.0 | 3.0 | 0.00 | 0.00 | 0.00 | 80 | 1015.5 |
| 20260507185604 | 52 | 151 | 0.0 | 3.0 | 0.00 | 0.00 | 0.00 | 80 | 1015.4 |
| 20260507185504 | 53 | 154 | 0.0 | 3.0 | 0.00 | 0.00 | 0.00 | 80 | 1015.6 |
| 20260507185305 | 53 | 150 | 0.0 | 3.0 | 0.00 | 0.00 | 0.00 | 80 | 1015.4 |
| 20260507185203 | 53 | 147 | 1.0 | 3.0 | 0.00 | 0.00 | 0.00 | 80 | 1015.3 |
| 20260507185104 | 53 | 144 | 1.0 | 3.0 | 0.00 | 0.00 | 0.00 | 80 | 1015.4 |
| 20260507185003 | 53 | 142 | 1.0 | 3.0 | 0.00 | 0.00 | 0.00 | 80 | 1015.6 |
| 20260507184904 | 53 | 135 | 1.0 | 3.0 | 0.00 | 0.00 | 0.00 | 80 | 1015.4 |
| 20260507184803 | 53 | 134 | 1.0 | 3.0 | 0.00 | 0.00 | 0.00 | 80 | 1015.5 |
| 20260507184704 | 53 | 138 | 1.0 | 3.0 | 0.00 | 0.00 | 0.00 | 80 | 1015.4 |
| 20260507184603 | 53 | 138 | 1.0 | 3.0 | 0.00 | 0.00 | 0.00 | 80 | 1015.4 |
| 20260507184503 | 53 | 136 | 1.0 | 3.0 | 0.00 | 0.00 | 0.00 | 80 | 1015.5 |
| 20260507184403 | 53 | 135 | 1.0 | 3.0 | 0.00 | 0.00 | 0.00 | 80 | 1015.5 |
| 20260507184304 | 53 | 132 | 0.0 | 3.0 | 0.00 | 0.00 | 0.00 | 80 | 1015.7 |
| 20260507184204 | 53 | 130 | 1.0 | 3.0 | 0.00 | 0.00 | 0.00 | 80 | 1015.4 |
| 20260507184103 | 53 | 125 | 1.0 | 3.0 | 0.00 | 0.00 | 0.00 | 80 | 1015.4 |
| 20260507184003 | 53 | 130 | 1.0 | 3.0 | 0.00 | 0.00 | 0.00 | 79 | 1015.2 |
| 20260507183913 | 53 | 130 | 1.0 | 3.0 | 0.00 | 0.00 | 0.00 | 79 | 1015.2 |
| 20260507183904 | 53 | 133 | 1.0 | 3.0 | 0.00 | 0.00 | 0.00 | 79 | 1015.6 |
| 20260507183803 | 53 | 131 | 1.0 | 3.0 | 0.00 | 0.00 | 0.00 | 79 | 1015.3 |
| 20260507183604 | 53 | 133 | 1.0 | 3.0 | 0.00 | 0.00 | 0.00 | 79 | 1015.3 |
| 20260507183504 | 53 | 131 | 1.0 | 3.0 | 0.00 | 0.00 | 0.00 | 79 | 1015.4 |
| 20260507183403 | 53 | 131 | 1.0 | 3.0 | 0.00 | 0.00 | 0.00 | 79 | 1015.4 |
| 20260507183303 | 53 | 131 | 1.0 | 3.0 | 0.00 | 0.00 | 0.00 | 79 | 1015.4 |
| 20260507183204 | 53 | 132 | 1.0 | 3.0 | 0.00 | 0.00 | 0.00 | 79 | 1015.4 |
| 20260507183103 | 53 | 137 | 1.0 | 3.0 | 0.00 | 0.00 | 0.00 | 79 | 1015.6 |
| 20260507183015 | 53 | 137 | 1.0 | 3.0 | 0.00 | 0.00 | 0.00 | 79 | 1015.6 |
| 20260507183003 | 53 | 129 | 1.0 | 3.0 | 0.00 | 0.00 | 0.00 | 79 | 1015.4 |
| 20260507182903 | 53 | 127 | 1.0 | 4.0 | 0.00 | 0.00 | 0.00 | 79 | 1015.3 |
| 20260507182704 | 53 | 135 | 1.0 | 4.0 | 0.00 | 0.00 | 0.00 | 79 | 1015.5 |
| 20260507182604 | 53 | 137 | 1.0 | 4.0 | 0.00 | 0.00 | 0.00 | 79 | 1015.5 |
| 20260507182403 | 53 | 137 | 1.0 | 4.0 | 0.00 | 0.00 | 0.00 | 78 | 1015.5 |
| 20260507182306 | 53 | 136 | 1.0 | 4.0 | 0.00 | 0.00 | 0.00 | 78 | 1015.5 |
| 20260507182203 | 53 | 139 | 1.0 | 4.0 | 0.00 | 0.00 | 0.00 | 78 | 1015.5 |
| 20260507182104 | 53 | 137 | 1.0 | 4.0 | 0.00 | 0.00 | 0.00 | 78 | 1015.4 |
| 20260507182004 | 53 | 144 | 1.0 | 4.0 | 0.00 | 0.00 | 0.00 | 78 | 1015.4 |
| 20260507181903 | 53 | 154 | 1.0 | 4.0 | 0.00 | 0.00 | 0.00 | 78 | 1015.4 |
| 20260507181803 | 53 | 148 | 1.0 | 4.0 | 0.00 | 0.00 | 0.00 | 78 | 1015.3 |
| 20260507181717 | 53 | 148 | 1.0 | 4.0 | 0.00 | 0.00 | 0.00 | 78 | 1015.3 |
| 20260507181703 | 53 | 148 | 1.0 | 4.0 | 0.00 | 0.00 | 0.00 | 78 | 1015.4 |
| 20260507181604 | 53 | 147 | 1.0 | 4.0 | 0.00 | 0.00 | 0.00 | 78 | 1015.5 |
| 20260507181404 | 53 | 146 | 1.0 | 4.0 | 0.00 | 0.00 | 0.00 | 78 | 1015.3 |
| 20260507181316 | 53 | 146 | 1.0 | 4.0 | 0.00 | 0.00 | 0.00 | 78 | 1015.3 |
| 20260507181303 | 53 | 148 | 1.0 | 4.0 | 0.00 | 0.00 | 0.00 | 78 | 1015.3 |
| 20260507181204 | 53 | 145 | 1.0 | 4.0 | 0.00 | 0.00 | 0.00 | 78 | 1015.4 |
| 20260507181003 | 53 | 143 | 1.0 | 4.0 | 0.00 | 0.00 | 0.00 | 78 | 1015.4 |
| 20260507180903 | 53 | 135 | 1.0 | 4.0 | 0.00 | 0.00 | 0.00 | 78 | 1015.2 |
| 20260507180814 | 53 | 135 | 1.0 | 4.0 | 0.00 | 0.00 | 0.00 | 78 | 1015.2 |
| 20260507180804 | 53 | 134 | 1.0 | 4.0 | 0.00 | 0.00 | 0.00 | 78 | 1015.5 |
| 20260507180703 | 53 | 137 | 1.0 | 4.0 | 0.00 | 0.00 | 0.00 | 78 | 1015.4 |
| 20260507180515 | 53 | 139 | 1.0 | 4.0 | 0.00 | 0.00 | 0.00 | 77 | 1015.4 |
| 20260507180504 | 53 | 143 | 1.0 | 4.0 | 0.00 | 0.00 | 0.00 | 77 | 1015.5 |
| 20260507180413 | 53 | 143 | 1.0 | 4.0 | 0.00 | 0.00 | 0.00 | 77 | 1015.5 |
| 20260507180403 | 53 | 143 | 1.0 | 3.0 | 0.00 | 0.00 | 0.00 | 77 | 1015.5 |
| 20260507180103 | 53 | 147 | 0.0 | 3.0 | 0.00 | 0.00 | 0.00 | 78 | 1015.3 |
| 20260507180013 | 53 | 147 | 0.0 | 3.0 | 0.00 | 0.00 | 0.00 | 78 | 1015.3 |
| 20260507180003 | 53 | 147 | 0.0 | 3.0 | 0.00 | 0.00 | 0.00 | 78 | 1015.4 |
| 20260507175903 | 53 | 146 | 0.0 | 3.0 | 0.00 | 0.00 | 0.00 | 78 | 1015.3 |
| 20260507175815 | 53 | 146 | 0.0 | 3.0 | 0.00 | 0.00 | 0.00 | 78 | 1015.3 |
| 20260507175703 | 54 | 144 | 0.0 | 3.0 | 0.00 | 0.00 | 0.00 | 78 | 1015.5 |
| 20260507175504 | 54 | 134 | 0.0 | 2.0 | 0.00 | 0.00 | 0.00 | 78 | 1015.2 |
| 20260507175404 | 54 | 132 | 0.0 | 2.0 | 0.00 | 0.00 | 0.00 | 78 | 1015.3 |
| 20260507175306 | 54 | 130 | 0.0 | 2.0 | 0.00 | 0.00 | 0.00 | 78 | 1015.4 |
| 20260507175204 | 54 | 129 | 0.0 | 2.0 | 0.00 | 0.00 | 0.00 | 78 | 1015.3 |
| 20260507175104 | 54 | 126 | 0.0 | 2.0 | 0.00 | 0.00 | 0.00 | 78 | 1015.2 |
| 20260507175003 | 54 | 122 | 1.0 | 2.0 | 0.00 | 0.00 | 0.00 | 78 | 1015.3 |
| 20260507174903 | 54 | 118 | 1.0 | 2.0 | 0.00 | 0.00 | 0.00 | 78 | 1015.3 |
| 20260507174804 | 54 | 118 | 1.0 | 2.0 | 0.00 | 0.00 | 0.00 | 78 | 1015.4 |
| 20260507174704 | 54 | 114 | 1.0 | 2.0 | 0.00 | 0.00 | 0.00 | 78 | 1015.4 |
| 20260507174603 | 54 | 108 | 1.0 | 2.0 | 0.00 | 0.00 | 0.00 | 78 | 1015.3 |
| 20260507174503 | 54 | 105 | 1.0 | 2.0 | 0.00 | 0.00 | 0.00 | 78 | 1015.5 |
| 20260507174403 | 54 | 108 | 1.0 | 2.0 | 0.00 | 0.00 | 0.00 | 77 | 1015.5 |
| 20260507174304 | 54 | 112 | 1.0 | 2.0 | 0.00 | 0.00 | 0.00 | 77 | 1015.2 |
| 20260507174204 | 54 | 118 | 1.0 | 2.0 | 0.00 | 0.00 | 0.00 | 77 | 1015.4 |
| 20260507174103 | 54 | 115 | 1.0 | 3.0 | 0.00 | 0.00 | 0.00 | 77 | 1015.3 |
| 20260507174003 | 54 | 111 | 1.0 | 3.0 | 0.00 | 0.00 | 0.00 | 77 | 1015.4 |
| 20260507173913 | 54 | 111 | 1.0 | 3.0 | 0.00 | 0.00 | 0.00 | 77 | 1015.4 |
| 20260507173903 | 54 | 104 | 1.0 | 3.0 | 0.00 | 0.00 | 0.00 | 77 | 1015.2 |
| 20260507173804 | 54 | 104 | 1.0 | 3.0 | 0.00 | 0.00 | 0.00 | 77 | 1015.3 |
| 20260507173604 | 54 | 103 | 1.0 | 3.0 | 0.00 | 0.00 | 0.00 | 77 | 1015.2 |
| 20260507173513 | 54 | 103 | 1.0 | 3.0 | 0.00 | 0.00 | 0.00 | 77 | 1015.2 |
| 20260507173504 | 54 | 99 | 1.0 | 3.0 | 0.00 | 0.00 | 0.00 | 77 | 1015.4 |
| 20260507173403 | 54 | 97 | 1.0 | 3.0 | 0.00 | 0.00 | 0.00 | 77 | 1015.3 |
| 20260507173204 | 54 | 87 | 1.0 | 3.0 | 0.00 | 0.00 | 0.00 | 77 | 1015.3 |
| 20260507173104 | 54 | 92 | 1.0 | 3.0 | 0.00 | 0.00 | 0.00 | 77 | 1015.2 |
| 20260507173003 | 54 | 102 | 1.0 | 3.0 | 0.00 | 0.00 | 0.00 | 77 | 1015.3 |
| 20260507172903 | 54 | 116 | 1.0 | 3.0 | 0.00 | 0.00 | 0.00 | 77 | 1015.2 |
| 20260507172804 | 54 | 109 | 1.0 | 3.0 | 0.00 | 0.00 | 0.00 | 77 | 1015.2 |
| 20260507172703 | 54 | 110 | 1.0 | 4.0 | 0.00 | 0.00 | 0.00 | 77 | 1015.3 |
| 20260507172603 | 54 | 115 | 1.0 | 4.0 | 0.00 | 0.00 | 0.00 | 77 | 1015.3 |
| 20260507172503 | 54 | 120 | 1.0 | 4.0 | 0.00 | 0.00 | 0.00 | 77 | 1015.4 |
| 20260507172404 | 54 | 116 | 1.0 | 4.0 | 0.00 | 0.00 | 0.00 | 77 | 1015.4 |
| 20260507172307 | 54 | 116 | 1.0 | 4.0 | 0.00 | 0.00 | 0.00 | 77 | 1015.1 |
| 20260507172203 | 54 | 111 | 1.0 | 4.0 | 0.00 | 0.00 | 0.00 | 77 | 1015.3 |
| 20260507172103 | 54 | 107 | 2.0 | 4.0 | 0.00 | 0.00 | 0.00 | 77 | 1015.5 |
| 20260507172004 | 54 | 101 | 2.0 | 4.0 | 0.00 | 0.00 | 0.00 | 77 | 1015.5 |
| 20260507171903 | 54 | 95 | 1.0 | 4.0 | 0.00 | 0.00 | 0.00 | 77 | 1015.3 |
| 20260507171803 | 54 | 97 | 1.0 | 4.0 | 0.00 | 0.00 | 0.00 | 77 | 1015.4 |
| 20260507171712 | 54 | 97 | 1.0 | 4.0 | 0.00 | 0.00 | 0.00 | 77 | 1015.4 |
| 20260507171704 | 54 | 96 | 1.0 | 4.0 | 0.00 | 0.00 | 0.00 | 77 | 1015.3 |
| 20260507171603 | 54 | 95 | 1.0 | 4.0 | 0.00 | 0.00 | 0.00 | 77 | 1015.5 |
| 20260507171403 | 54 | 90 | 1.0 | 3.0 | 0.00 | 0.00 | 0.00 | 77 | 1015.4 |
| 20260507171303 | 54 | 92 | 1.0 | 3.0 | 0.00 | 0.00 | 0.00 | 78 | 1015.3 |
| 20260507171204 | 54 | 103 | 1.0 | 3.0 | 0.00 | 0.00 | 0.00 | 78 | 1015.2 |
| 20260507171114 | 54 | 103 | 1.0 | 3.0 | 0.00 | 0.00 | 0.00 | 78 | 1015.2 |
| 20260507171103 | 54 | 105 | 1.0 | 3.0 | 0.00 | 0.00 | 0.00 | 78 | 1015.4 |
| 20260507171003 | 54 | 104 | 1.0 | 4.0 | 0.00 | 0.00 | 0.00 | 78 | 1015.4 |
| 20260507170815 | 54 | 105 | 1.0 | 4.0 | 0.00 | 0.00 | 0.00 | 78 | 1015.4 |
| 20260507170803 | 54 | 97 | 1.0 | 4.0 | 0.00 | 0.00 | 0.00 | 78 | 1015.3 |
| 20260507170703 | 54 | 98 | 1.0 | 4.0 | 0.00 | 0.00 | 0.00 | 78 | 1015.2 |
| 20260507170504 | 54 | 97 | 1.0 | 4.0 | 0.00 | 0.00 | 0.00 | 78 | 1015.3 |
| 20260507170404 | 54 | 94 | 1.0 | 4.0 | 0.00 | 0.00 | 0.00 | 78 | 1015.4 |
| 20260507170303 | 54 | 87 | 1.0 | 4.0 | 0.00 | 0.00 | 0.00 | 78 | 1015.3 |
| 20260507170204 | 54 | 84 | 1.0 | 4.0 | 0.00 | 0.00 | 0.00 | 78 | 1015.4 |
| 20260507170009 | 54 | 83 | 1.0 | 4.0 | 0.00 | 0.00 | 0.00 | 78 | 1015.3 |
| 20260507165903 | 54 | 88 | 1.0 | 4.0 | 0.00 | 0.00 | 0.00 | 78 | 1015.4 |
| 20260507165816 | 54 | 88 | 1.0 | 4.0 | 0.00 | 0.00 | 0.00 | 78 | 1015.4 |
| 20260507165803 | 54 | 93 | 1.0 | 4.0 | 0.00 | 0.00 | 0.00 | 78 | 1015.5 |
| 20260507165714 | 54 | 93 | 1.0 | 4.0 | 0.00 | 0.00 | 0.00 | 78 | 1015.5 |
| 20260507165703 | 54 | 96 | 1.0 | 4.0 | 0.00 | 0.00 | 0.00 | 78 | 1015.2 |
| 20260507165403 | 54 | 92 | 1.0 | 4.0 | 0.00 | 0.00 | 0.00 | 78 | 1015.3 |
| 20260507165306 | 54 | 99 | 1.0 | 4.0 | 0.00 | 0.00 | 0.00 | 78 | 1015.3 |
| 20260507165203 | 54 | 100 | 1.0 | 4.0 | 0.00 | 0.00 | 0.00 | 77 | 1015.5 |
| 20260507165116 | 54 | 100 | 1.0 | 4.0 | 0.00 | 0.00 | 0.00 | 77 | 1015.5 |
| 20260507165103 | 54 | 96 | 1.0 | 4.0 | 0.00 | 0.00 | 0.00 | 77 | 1015.4 |
| 20260507165003 | 54 | 90 | 1.0 | 4.0 | 0.00 | 0.00 | 0.00 | 77 | 1015.4 |
| 20260507164803 | 54 | 92 | 1.0 | 4.0 | 0.00 | 0.00 | 0.00 | 77 | 1015.4 |
| 20260507164704 | 54 | 91 | 1.0 | 4.0 | 0.00 | 0.00 | 0.00 | 77 | 1015.2 |
| 20260507164603 | 54 | 87 | 1.0 | 4.0 | 0.00 | 0.00 | 0.00 | 77 | 1015.2 |
| 20260507164504 | 54 | 88 | 1.0 | 4.0 | 0.00 | 0.00 | 0.00 | 77 | 1015.4 |
| 20260507164403 | 54 | 111 | 1.0 | 4.0 | 0.00 | 0.00 | 0.00 | 77 | 1015.3 |
| 20260507164303 | 54 | 120 | 1.0 | 3.0 | 0.00 | 0.00 | 0.00 | 77 | 1015.6 |
| 20260507164204 | 54 | 113 | 1.0 | 3.0 | 0.00 | 0.00 | 0.00 | 77 | 1015.5 |
| 20260507164103 | 54 | 116 | 1.0 | 3.0 | 0.00 | 0.00 | 0.00 | 77 | 1015.5 |
| 20260507164004 | 54 | 122 | 1.0 | 3.0 | 0.00 | 0.00 | 0.00 | 77 | 1015.4 |
| 20260507163603 | 54 | 105 | 1.0 | 6.0 | 0.00 | 0.00 | 0.00 | 77 | 1015.6 |
| 20260507163503 | 54 | 105 | 1.0 | 6.0 | 0.00 | 0.00 | 0.00 | 77 | 1015.6 |
| 20260507163404 | 54 | 98 | 1.0 | 6.0 | 0.00 | 0.00 | 0.00 | 77 | 1015.5 |
| 20260507163303 | 54 | 95 | 1.0 | 6.0 | 0.00 | 0.00 | 0.00 | 78 | 1015.6 |
| 20260507163203 | 54 | 97 | 1.0 | 6.0 | 0.00 | 0.00 | 0.00 | 78 | 1015.5 |
| 20260507163113 | 54 | 97 | 1.0 | 6.0 | 0.00 | 0.00 | 0.00 | 78 | 1015.5 |
| 20260507163103 | 54 | 99 | 1.0 | 6.0 | 0.00 | 0.00 | 0.00 | 78 | 1015.5 |
| 20260507163003 | 54 | 107 | 1.0 | 6.0 | 0.00 | 0.00 | 0.00 | 78 | 1015.4 |
| 20260507162915 | 54 | 109 | 1.0 | 6.0 | 0.00 | 0.00 | 0.00 | 78 | 1015.6 |
| 20260507162813 | 54 | 109 | 1.0 | 6.0 | 0.00 | 0.00 | 0.00 | 78 | 1015.6 |
| 20260507162804 | 54 | 99 | 1.0 | 6.0 | 0.00 | 0.00 | 0.00 | 78 | 1015.3 |
| 20260507162712 | 54 | 99 | 1.0 | 6.0 | 0.00 | 0.00 | 0.00 | 78 | 1015.3 |
| 20260507162514 | 54 | 91 | 1.0 | 6.0 | 0.00 | 0.00 | 0.00 | 78 | 1015.6 |
| 20260507162413 | 54 | 86 | 1.0 | 6.0 | 0.00 | 0.00 | 0.00 | 77 | 1015.5 |
| 20260507162404 | 54 | 85 | 2.0 | 6.0 | 0.00 | 0.00 | 0.00 | 77 | 1015.3 |
| 20260507162317 | 54 | 85 | 2.0 | 6.0 | 0.00 | 0.00 | 0.00 | 77 | 1015.3 |
| 20260507162003 | 54 | 46 | 2.0 | 6.0 | 0.00 | 0.00 | 0.00 | 77 | 1015.4 |
| 20260507161903 | 54 | 37 | 2.0 | 6.0 | 0.00 | 0.00 | 0.00 | 77 | 1015.4 |
| 20260507161815 | 54 | 37 | 2.0 | 6.0 | 0.00 | 0.00 | 0.00 | 77 | 1015.4 |
| 20260507161804 | 54 | 39 | 2.0 | 6.0 | 0.00 | 0.00 | 0.00 | 77 | 1015.5 |
| 20260507161703 | 54 | 46 | 2.0 | 6.0 | 0.00 | 0.00 | 0.00 | 77 | 1015.6 |
| 20260507161503 | 54 | 66 | 2.0 | 6.0 | 0.00 | 0.00 | 0.00 | 78 | 1015.4 |
| 20260507161403 | 54 | 66 | 2.0 | 6.0 | 0.00 | 0.00 | 0.00 | 78 | 1015.4 |
| 20260507161203 | 54 | 81 | 2.0 | 4.0 | 0.00 | 0.00 | 0.00 | 77 | 1015.4 |
| 20260507161103 | 54 | 90 | 1.0 | 4.0 | 0.00 | 0.00 | 0.00 | 77 | 1015.4 |
| 20260507161013 | 54 | 90 | 1.0 | 4.0 | 0.00 | 0.00 | 0.00 | 77 | 1015.4 |
| 20260507161004 | 54 | 91 | 2.0 | 4.0 | 0.00 | 0.00 | 0.00 | 77 | 1015.4 |
| 20260507160904 | 54 | 105 | 2.0 | 4.0 | 0.00 | 0.00 | 0.00 | 77 | 1015.6 |
| 20260507160703 | 54 | 94 | 2.0 | 4.0 | 0.00 | 0.00 | 0.00 | 77 | 1015.4 |
| 20260507160603 | 54 | 83 | 2.0 | 4.0 | 0.00 | 0.00 | 0.00 | 77 | 1015.5 |
| 20260507160503 | 54 | 104 | 2.0 | 6.0 | 0.00 | 0.00 | 0.00 | 77 | 1015.5 |
| 20260507160415 | 54 | 104 | 2.0 | 6.0 | 0.00 | 0.00 | 0.00 | 77 | 1015.5 |
| 20260507160403 | 54 | 98 | 2.0 | 6.0 | 0.00 | 0.00 | 0.00 | 77 | 1015.7 |
| 20260507160303 | 54 | 107 | 2.0 | 6.0 | 0.00 | 0.00 | 0.00 | 77 | 1015.5 |
| 20260507160003 | 54 | 90 | 2.0 | 6.0 | 0.00 | 0.00 | 0.00 | 77 | 1015.4 |
| 20260507155903 | 54 | 75 | 2.0 | 6.0 | 0.00 | 0.00 | 0.00 | 77 | 1015.6 |
| 20260507155803 | 54 | 86 | 2.0 | 6.0 | 0.00 | 0.00 | 0.00 | 77 | 1015.5 |
| 20260507155704 | 54 | 92 | 2.0 | 6.0 | 0.00 | 0.00 | 0.00 | 77 | 1015.5 |
| 20260507155603 | 54 | 93 | 2.0 | 6.0 | 0.00 | 0.00 | 0.00 | 77 | 1015.4 |
| 20260507155504 | 54 | 85 | 2.0 | 6.0 | 0.00 | 0.00 | 0.00 | 77 | 1015.6 |
| 20260507155404 | 54 | 83 | 2.0 | 6.0 | 0.00 | 0.00 | 0.00 | 77 | 1015.5 |
| 20260507155306 | 54 | 86 | 2.0 | 6.0 | 0.00 | 0.00 | 0.00 | 77 | 1015.4 |
| 20260507155203 | 54 | 90 | 2.0 | 6.0 | 0.00 | 0.00 | 0.00 | 77 | 1015.5 |
| 20260507155104 | 54 | 96 | 2.0 | 6.0 | 0.00 | 0.00 | 0.00 | 77 | 1015.7 |
| 20260507155003 | 54 | 95 | 2.0 | 6.0 | 0.00 | 0.00 | 0.00 | 77 | 1015.6 |
| 20260507154914 | 54 | 95 | 2.0 | 6.0 | 0.00 | 0.00 | 0.00 | 77 | 1015.6 |
| 20260507154903 | 54 | 105 | 2.0 | 7.0 | 0.00 | 0.00 | 0.00 | 77 | 1015.4 |
| 20260507154812 | 54 | 105 | 2.0 | 7.0 | 0.00 | 0.00 | 0.00 | 77 | 1015.4 |
| 20260507154804 | 54 | 96 | 2.0 | 7.0 | 0.00 | 0.00 | 0.00 | 77 | 1015.4 |
| 20260507154614 | 54 | 95 | 2.0 | 7.0 | 0.00 | 0.00 | 0.00 | 77 | 1015.5 |
| 20260507154513 | 54 | 95 | 2.0 | 7.0 | 0.00 | 0.00 | 0.00 | 77 | 1015.6 |
| 20260507154503 | 54 | 104 | 2.0 | 7.0 | 0.00 | 0.00 | 0.00 | 77 | 1015.6 |
| 20260507154214 | 54 | 99 | 2.0 | 7.0 | 0.00 | 0.00 | 0.00 | 77 | 1015.7 |
| 20260507154204 | 54 | 106 | 2.0 | 7.0 | 0.00 | 0.00 | 0.00 | 77 | 1015.6 |
| 20260507154103 | 54 | 100 | 2.0 | 7.0 | 0.00 | 0.00 | 0.00 | 77 | 1015.5 |
| 20260507153904 | 54 | 99 | 2.0 | 7.0 | 0.00 | 0.00 | 0.00 | 76 | 1015.7 |
| 20260507153813 | 54 | 99 | 2.0 | 7.0 | 0.00 | 0.00 | 0.00 | 76 | 1015.7 |
| 20260507153803 | 54 | 103 | 2.0 | 7.0 | 0.00 | 0.00 | 0.00 | 76 | 1015.6 |
| 20260507153703 | 54 | 107 | 2.0 | 7.0 | 0.00 | 0.00 | 0.00 | 76 | 1015.4 |
| 20260507153503 | 54 | 104 | 2.0 | 7.0 | 0.00 | 0.00 | 0.00 | 76 | 1015.5 |
| 20260507153403 | 54 | 89 | 2.0 | 7.0 | 0.00 | 0.00 | 0.00 | 76 | 1015.5 |
| 20260507153304 | 54 | 102 | 2.0 | 7.0 | 0.00 | 0.00 | 0.00 | 76 | 1015.5 |
| 20260507153215 | 54 | 102 | 2.0 | 7.0 | 0.00 | 0.00 | 0.00 | 76 | 1015.5 |
| 20260507153203 | 54 | 99 | 2.0 | 7.0 | 0.00 | 0.00 | 0.00 | 76 | 1015.6 |
| 20260507153103 | 54 | 102 | 2.0 | 7.0 | 0.00 | 0.00 | 0.00 | 76 | 1015.6 |
| 20260507152916 | 54 | 106 | 2.0 | 7.0 | 0.00 | 0.00 | 0.00 | 76 | 1015.5 |
| 20260507152903 | 54 | 105 | 2.0 | 7.0 | 0.00 | 0.00 | 0.00 | 76 | 1015.7 |
| 20260507152804 | 54 | 104 | 2.0 | 6.0 | 0.00 | 0.00 | 0.00 | 76 | 1015.6 |
| 20260507152604 | 54 | 99 | 1.0 | 6.0 | 0.00 | 0.00 | 0.00 | 76 | 1015.7 |
| 20260507152503 | 54 | 105 | 1.0 | 6.0 | 0.00 | 0.00 | 0.00 | 76 | 1015.5 |
| 20260507152403 | 54 | 119 | 2.0 | 6.0 | 0.00 | 0.00 | 0.00 | 76 | 1015.4 |
| 20260507152312 | 54 | 119 | 2.0 | 6.0 | 0.00 | 0.00 | 0.00 | 76 | 1015.4 |
| 20260507152306 | 54 | 113 | 1.0 | 6.0 | 0.00 | 0.00 | 0.00 | 76 | 1015.7 |
| 20260507152216 | 54 | 113 | 1.0 | 6.0 | 0.00 | 0.00 | 0.00 | 76 | 1015.7 |
| 20260507152204 | 54 | 109 | 2.0 | 6.0 | 0.00 | 0.00 | 0.00 | 76 | 1015.6 |
| 20260507151903 | 54 | 96 | 2.0 | 4.0 | 0.00 | 0.00 | 0.00 | 76 | 1015.5 |
| 20260507151804 | 54 | 89 | 2.0 | 4.0 | 0.00 | 0.00 | 0.00 | 76 | 1015.5 |
| 20260507151703 | 54 | 86 | 2.0 | 4.0 | 0.00 | 0.00 | 0.00 | 76 | 1015.7 |
| 20260507151603 | 54 | 78 | 2.0 | 7.0 | 0.00 | 0.00 | 0.00 | 76 | 1015.5 |
| 20260507151504 | 54 | 79 | 2.0 | 7.0 | 0.00 | 0.00 | 0.00 | 76 | 1015.3 |
| 20260507151403 | 54 | 78 | 2.0 | 7.0 | 0.00 | 0.00 | 0.00 | 76 | 1015.5 |
| 20260507151313 | 54 | 78 | 2.0 | 7.0 | 0.00 | 0.00 | 0.00 | 76 | 1015.5 |
| 20260507151303 | 54 | 78 | 2.0 | 7.0 | 0.00 | 0.00 | 0.00 | 76 | 1015.5 |
| 20260507151203 | 54 | 80 | 2.0 | 7.0 | 0.00 | 0.00 | 0.00 | 76 | 1015.5 |
| 20260507151003 | 54 | 83 | 2.0 | 7.0 | 0.00 | 0.00 | 0.00 | 76 | 1015.5 |
| 20260507150912 | 54 | 83 | 2.0 | 7.0 | 0.00 | 0.00 | 0.00 | 76 | 1015.5 |
| 20260507150903 | 54 | 82 | 2.0 | 7.0 | 0.00 | 0.00 | 0.00 | 76 | 1015.6 |
| 20260507150804 | 54 | 87 | 2.0 | 7.0 | 0.00 | 0.00 | 0.00 | 76 | 1015.5 |
| 20260507150604 | 54 | 97 | 2.0 | 7.0 | 0.00 | 0.00 | 0.00 | 76 | 1015.5 |
| 20260507150503 | 54 | 96 | 2.0 | 7.0 | 0.00 | 0.00 | 0.00 | 76 | 1015.4 |
| 20260507150403 | 54 | 96 | 2.0 | 7.0 | 0.00 | 0.00 | 0.00 | 76 | 1015.4 |
| 20260507150303 | 54 | 99 | 2.0 | 7.0 | 0.00 | 0.00 | 0.00 | 76 | 1015.6 |
| 20260507150203 | 54 | 95 | 2.0 | 7.0 | 0.00 | 0.00 | 0.00 | 76 | 1015.7 |
| 20260507150004 | 54 | 101 | 2.0 | 7.0 | 0.00 | 0.00 | 0.00 | 76 | 1015.6 |
| 20260507145903 | 54 | 110 | 2.0 | 7.0 | 0.00 | 0.00 | 0.00 | 75 | 1015.5 |
| 20260507145803 | 54 | 104 | 2.0 | 7.0 | 0.00 | 0.00 | 0.00 | 75 | 1015.6 |
| 20260507145703 | 54 | 104 | 2.0 | 7.0 | 0.00 | 0.00 | 0.00 | 75 | 1015.4 |
| 20260507145603 | 54 | 107 | 2.0 | 7.0 | 0.00 | 0.00 | 0.00 | 75 | 1015.5 |
| 20260507145518 | 54 | 107 | 2.0 | 7.0 | 0.00 | 0.00 | 0.00 | 75 | 1015.5 |
| 20260507145504 | 54 | 101 | 2.0 | 7.0 | 0.00 | 0.00 | 0.00 | 75 | 1015.5 |
| 20260507145403 | 54 | 101 | 2.0 | 7.0 | 0.00 | 0.00 | 0.00 | 75 | 1015.5 |
| 20260507145203 | 54 | 104 | 2.0 | 7.0 | 0.00 | 0.00 | 0.00 | 75 | 1015.5 |
| 20260507145103 | 54 | 101 | 2.0 | 7.0 | 0.00 | 0.00 | 0.00 | 75 | 1015.4 |
| 20260507145003 | 54 | 100 | 2.0 | 7.0 | 0.00 | 0.00 | 0.00 | 75 | 1015.5 |
| 20260507144914 | 54 | 100 | 2.0 | 7.0 | 0.00 | 0.00 | 0.00 | 75 | 1015.5 |
| 20260507144904 | 54 | 97 | 2.0 | 7.0 | 0.00 | 0.00 | 0.00 | 75 | 1015.5 |
| 20260507144803 | 54 | 104 | 2.0 | 7.0 | 0.00 | 0.00 | 0.00 | 75 | 1015.5 |
| 20260507144603 | 54 | 109 | 2.0 | 7.0 | 0.00 | 0.00 | 0.00 | 75 | 1015.4 |
| 20260507144504 | 54 | 118 | 2.0 | 7.0 | 0.00 | 0.00 | 0.00 | 75 | 1015.6 |
| 20260507144403 | 54 | 125 | 2.0 | 7.0 | 0.00 | 0.00 | 0.00 | 75 | 1015.5 |
| 20260507144303 | 54 | 121 | 2.0 | 7.0 | 0.00 | 0.00 | 0.00 | 75 | 1015.8 |
| 20260507144214 | 54 | 121 | 2.0 | 7.0 | 0.00 | 0.00 | 0.00 | 75 | 1015.8 |
| 20260507144203 | 54 | 120 | 2.0 | 7.0 | 0.00 | 0.00 | 0.00 | 75 | 1015.7 |
| 20260507144103 | 54 | 116 | 2.0 | 7.0 | 0.00 | 0.01 | 0.00 | 75 | 1015.5 |
| 20260507143904 | 54 | 105 | 2.0 | 7.0 | 0.00 | 0.01 | 0.00 | 75 | 1015.6 |
| 20260507143803 | 54 | 114 | 2.0 | 7.0 | 0.00 | 0.01 | 0.00 | 75 | 1015.6 |
| 20260507143703 | 54 | 97 | 2.0 | 7.0 | 0.00 | 0.01 | 0.00 | 75 | 1015.5 |
| 20260507143603 | 54 | 98 | 2.0 | 6.0 | 0.00 | 0.01 | 0.00 | 75 | 1015.5 |
| 20260507143515 | 54 | 98 | 2.0 | 6.0 | 0.00 | 0.01 | 0.00 | 75 | 1015.5 |
| 20260507143503 | 54 | 91 | 2.0 | 6.0 | 0.00 | 0.01 | 0.00 | 75 | 1015.6 |
| 20260507143403 | 54 | 86 | 2.0 | 6.0 | 0.00 | 0.01 | 0.00 | 75 | 1015.6 |
| 20260507143203 | 54 | 92 | 2.0 | 6.0 | 0.00 | 0.02 | 0.00 | 74 | 1015.7 |
| 20260507143103 | 54 | 88 | 2.0 | 6.0 | 0.00 | 0.02 | 0.00 | 74 | 1015.7 |
| 20260507143004 | 54 | 90 | 2.0 | 6.0 | 0.00 | 0.02 | 0.00 | 74 | 1015.9 |
| 20260507142903 | 54 | 84 | 2.0 | 4.0 | 0.00 | 0.02 | 0.00 | 74 | 1015.7 |
| 20260507142803 | 54 | 80 | 2.0 | 4.0 | 0.00 | 0.02 | 0.00 | 74 | 1015.8 |
| 20260507142703 | 54 | 80 | 2.0 | 4.0 | 0.00 | 0.02 | 0.00 | 74 | 1015.7 |
| 20260507142617 | 54 | 80 | 2.0 | 4.0 | 0.00 | 0.02 | 0.00 | 74 | 1015.7 |
| 20260507142603 | 54 | 76 | 2.0 | 4.0 | 0.00 | 0.02 | 0.00 | 74 | 1015.6 |
| 20260507142503 | 54 | 74 | 2.0 | 4.0 | 0.00 | 0.02 | 0.00 | 74 | 1015.8 |
| 20260507142306 | 54 | 72 | 2.0 | 4.0 | 0.00 | 0.02 | 0.00 | 74 | 1015.6 |
| 20260507142204 | 54 | 69 | 2.0 | 4.0 | 0.00 | 0.02 | 0.00 | 74 | 1015.8 |
| 20260507142103 | 54 | 82 | 2.0 | 7.0 | 0.00 | 0.02 | 0.00 | 74 | 1015.7 |
| 20260507142003 | 54 | 85 | 2.0 | 7.0 | 0.00 | 0.02 | 0.00 | 74 | 1015.6 |
| 20260507141903 | 54 | 76 | 2.0 | 7.0 | 0.00 | 0.02 | 0.00 | 74 | 1015.7 |
| 20260507141804 | 54 | 63 | 2.0 | 7.0 | 0.00 | 0.02 | 0.00 | 74 | 1015.7 |
| 20260507141703 | 54 | 67 | 2.0 | 7.0 | 0.00 | 0.02 | 0.00 | 74 | 1015.8 |
| 20260507141604 | 54 | 60 | 2.0 | 7.0 | 0.00 | 0.02 | 0.00 | 74 | 1015.8 |
| 20260507141503 | 54 | 66 | 2.0 | 7.0 | 0.00 | 0.02 | 0.00 | 74 | 1015.8 |
| 20260507141403 | 55 | 63 | 2.0 | 7.0 | 0.00 | 0.02 | 0.00 | 74 | 1015.8 |
| 20260507141303 | 55 | 52 | 2.0 | 7.0 | 0.00 | 0.02 | 0.00 | 74 | 1015.6 |
| 20260507141203 | 55 | 58 | 2.0 | 7.0 | 0.00 | 0.02 | 0.00 | 74 | 1015.7 |
| 20260507141104 | 55 | 56 | 2.0 | 7.0 | 0.00 | 0.02 | 0.00 | 73 | 1015.8 |
| 20260507141003 | 55 | 58 | 2.0 | 7.0 | 0.00 | 0.02 | 0.00 | 74 | 1015.8 |
| 20260507140913 | 55 | 58 | 2.0 | 7.0 | 0.00 | 0.02 | 0.00 | 74 | 1015.8 |
| 20260507140903 | 55 | 67 | 2.0 | 7.0 | 0.00 | 0.02 | 0.00 | 74 | 1015.7 |
| 20260507140803 | 55 | 81 | 2.0 | 7.0 | 0.00 | 0.02 | 0.00 | 74 | 1015.9 |
| 20260507140715 | 55 | 81 | 2.0 | 7.0 | 0.00 | 0.02 | 0.00 | 74 | 1015.9 |
| 20260507140603 | 55 | 96 | 2.0 | 7.0 | 0.00 | 0.02 | 0.00 | 74 | 1015.8 |
| 20260507140416 | 55 | 97 | 2.0 | 7.0 | 0.00 | 0.02 | 0.00 | 74 | 1015.9 |
| 20260507140403 | 55 | 95 | 2.0 | 7.0 | 0.00 | 0.02 | 0.00 | 73 | 1015.9 |
| 20260507140303 | 55 | 110 | 2.0 | 7.0 | 0.00 | 0.02 | 0.00 | 73 | 1015.7 |
| 20260507140003 | 55 | 98 | 2.0 | 7.0 | 0.00 | 0.02 | 0.00 | 73 | 1015.7 |
| 20260507135914 | 55 | 98 | 2.0 | 7.0 | 0.00 | 0.02 | 0.00 | 73 | 1015.7 |
| 20260507135903 | 55 | 97 | 2.0 | 7.0 | 0.00 | 0.02 | 0.00 | 73 | 1015.8 |
| 20260507135803 | 55 | 96 | 2.0 | 7.0 | 0.00 | 0.02 | 0.00 | 73 | 1015.9 |
| 20260507135603 | 55 | 94 | 2.0 | 7.0 | 0.00 | 0.02 | 0.00 | 73 | 1015.9 |
| 20260507135503 | 55 | 88 | 2.0 | 6.0 | 0.00 | 0.02 | 0.00 | 73 | 1015.8 |
| 20260507135417 | 55 | 88 | 2.0 | 6.0 | 0.00 | 0.02 | 0.00 | 73 | 1015.8 |
| 20260507135403 | 55 | 99 | 2.0 | 6.0 | 0.00 | 0.02 | 0.00 | 73 | 1015.7 |
| 20260507135306 | 55 | 91 | 3.0 | 6.0 | 0.00 | 0.02 | 0.00 | 73 | 1015.6 |
| 20260507135103 | 55 | 76 | 3.0 | 6.0 | 0.00 | 0.02 | 0.00 | 73 | 1015.6 |
| 20260507135004 | 55 | 86 | 2.0 | 6.0 | 0.00 | 0.02 | 0.00 | 73 | 1015.6 |
| 20260507134903 | 55 | 86 | 2.0 | 7.0 | 0.00 | 0.02 | 0.00 | 73 | 1015.8 |
| 20260507134803 | 55 | 87 | 2.0 | 7.0 | 0.00 | 0.02 | 0.00 | 73 | 1015.8 |
| 20260507134717 | 55 | 87 | 2.0 | 7.0 | 0.00 | 0.02 | 0.00 | 73 | 1015.8 |
| 20260507134703 | 55 | 79 | 2.0 | 7.0 | 0.00 | 0.02 | 0.00 | 73 | 1015.9 |
| 20260507134603 | 55 | 83 | 2.0 | 7.0 | 0.00 | 0.02 | 0.00 | 73 | 1015.6 |
| 20260507134403 | 55 | 80 | 2.0 | 7.0 | 0.00 | 0.02 | 0.00 | 73 | 1015.8 |
| 20260507134317 | 55 | 80 | 2.0 | 7.0 | 0.00 | 0.02 | 0.00 | 73 | 1015.8 |
| 20260507134303 | 55 | 80 | 2.0 | 7.0 | 0.00 | 0.02 | 0.00 | 73 | 1015.7 |
| 20260507134203 | 55 | 82 | 2.0 | 7.0 | 0.00 | 0.02 | 0.00 | 73 | 1015.8 |
| 20260507134114 | 55 | 82 | 2.0 | 7.0 | 0.00 | 0.02 | 0.00 | 73 | 1015.8 |
| 20260507134003 | 55 | 95 | 2.0 | 7.0 | 0.00 | 0.02 | 0.00 | 73 | 1015.7 |
| 20260507133916 | 55 | 95 | 2.0 | 7.0 | 0.00 | 0.02 | 0.00 | 73 | 1015.7 |
| 20260507133804 | 55 | 88 | 2.0 | 7.0 | 0.00 | 0.02 | 0.00 | 73 | 1015.7 |
| 20260507133617 | 55 | 92 | 2.0 | 7.0 | 0.00 | 0.02 | 0.00 | 73 | 1015.7 |
| 20260507133603 | 55 | 93 | 3.0 | 7.0 | 0.00 | 0.02 | 0.00 | 73 | 1015.6 |
| 20260507133503 | 55 | 98 | 2.0 | 7.0 | 0.00 | 0.02 | 0.00 | 73 | 1015.8 |
| 20260507133414 | 55 | 98 | 2.0 | 7.0 | 0.00 | 0.02 | 0.00 | 73 | 1015.8 |
| 20260507133303 | 55 | 110 | 3.0 | 7.0 | 0.00 | 0.02 | 0.00 | 73 | 1015.8 |
| 20260507133103 | 55 | 114 | 3.0 | 7.0 | 0.00 | 0.02 | 0.00 | 73 | 1015.7 |
| 20260507133003 | 55 | 111 | 2.0 | 7.0 | 0.00 | 0.02 | 0.00 | 73 | 1015.8 |
| 20260507132903 | 55 | 111 | 2.0 | 7.0 | 0.00 | 0.02 | 0.00 | 72 | 1015.7 |
| 20260507132803 | 55 | 123 | 2.0 | 7.0 | 0.00 | 0.02 | 0.00 | 72 | 1015.8 |
| 20260507132704 | 55 | 128 | 2.0 | 7.0 | 0.00 | 0.02 | 0.00 | 72 | 1015.8 |
| 20260507132603 | 55 | 125 | 2.0 | 7.0 | 0.00 | 0.02 | 0.00 | 72 | 1015.7 |
| 20260507132516 | 55 | 125 | 2.0 | 7.0 | 0.00 | 0.02 | 0.00 | 72 | 1015.7 |
| 20260507132503 | 55 | 113 | 2.0 | 7.0 | 0.00 | 0.02 | 0.00 | 72 | 1015.6 |
| 20260507132415 | 55 | 113 | 2.0 | 7.0 | 0.00 | 0.02 | 0.00 | 72 | 1015.6 |
| 20260507132403 | 55 | 98 | 2.0 | 7.0 | 0.00 | 0.02 | 0.00 | 72 | 1015.8 |
| 20260507132104 | 55 | 107 | 2.0 | 7.0 | 0.00 | 0.02 | 0.00 | 72 | 1015.6 |
| 20260507132003 | 55 | 108 | 3.0 | 7.0 | 0.00 | 0.02 | 0.00 | 72 | 1015.8 |
| 20260507131903 | 55 | 116 | 3.0 | 7.0 | 0.00 | 0.02 | 0.00 | 71 | 1015.7 |
| 20260507131803 | 55 | 112 | 3.0 | 7.0 | 0.00 | 0.02 | 0.00 | 71 | 1015.6 |
| 20260507131704 | 55 | 113 | 3.0 | 7.0 | 0.00 | 0.02 | 0.00 | 71 | 1015.9 |
| 20260507131603 | 55 | 117 | 3.0 | 7.0 | 0.00 | 0.02 | 0.00 | 71 | 1015.8 |
| 20260507131517 | 55 | 117 | 3.0 | 7.0 | 0.00 | 0.02 | 0.00 | 71 | 1015.8 |
| 20260507131504 | 55 | 129 | 3.0 | 7.0 | 0.00 | 0.02 | 0.00 | 71 | 1015.8 |
| 20260507131403 | 56 | 131 | 3.0 | 7.0 | 0.00 | 0.02 | 0.00 | 71 | 1015.7 |
| 20260507131203 | 56 | 125 | 2.0 | 7.0 | 0.00 | 0.02 | 0.00 | 71 | 1015.8 |
| 20260507131116 | 56 | 125 | 2.0 | 7.0 | 0.00 | 0.02 | 0.00 | 71 | 1015.8 |
| 20260507131103 | 56 | 127 | 2.0 | 7.0 | 0.00 | 0.02 | 0.00 | 71 | 1015.8 |
| 20260507131003 | 56 | 124 | 2.0 | 9.0 | 0.00 | 0.02 | 0.00 | 71 | 1015.7 |
| 20260507130914 | 56 | 124 | 2.0 | 9.0 | 0.00 | 0.02 | 0.00 | 71 | 1015.7 |
| 20260507130803 | 56 | 106 | 3.0 | 9.0 | 0.00 | 0.02 | 0.00 | 71 | 1015.7 |
| 20260507130614 | 56 | 96 | 3.0 | 9.0 | 0.00 | 0.02 | 0.00 | 71 | 1015.8 |
| 20260507130603 | 56 | 90 | 3.0 | 9.0 | 0.00 | 0.02 | 0.00 | 71 | 1015.6 |
| 20260507130513 | 56 | 90 | 3.0 | 9.0 | 0.00 | 0.02 | 0.00 | 71 | 1015.6 |
| 20260507130504 | 56 | 82 | 3.0 | 9.0 | 0.00 | 0.02 | 0.00 | 71 | 1015.8 |
| 20260507130203 | 56 | 81 | 3.0 | 9.0 | 0.00 | 0.02 | 0.00 | 71 | 1016.0 |
| 20260507130112 | 56 | 81 | 3.0 | 9.0 | 0.00 | 0.02 | 0.00 | 71 | 1016.0 |
| 20260507130003 | 56 | 79 | 2.0 | 9.0 | 0.00 | 0.02 | 0.00 | 71 | 1015.9 |
| 20260507125813 | 56 | 84 | 3.0 | 9.0 | 0.00 | 0.02 | 0.00 | 71 | 1015.8 |
| 20260507125804 | 56 | 80 | 3.0 | 7.0 | 0.00 | 0.02 | 0.00 | 71 | 1015.8 |
| 20260507125717 | 56 | 80 | 3.0 | 7.0 | 0.00 | 0.02 | 0.00 | 71 | 1015.8 |
| 20260507125703 | 56 | 90 | 2.0 | 6.0 | 0.00 | 0.02 | 0.00 | 72 | 1016.0 |
| 20260507125403 | 56 | 100 | 2.0 | 6.0 | 0.00 | 0.02 | 0.00 | 72 | 1015.8 |
| 20260507125306 | 56 | 96 | 2.0 | 6.0 | 0.00 | 0.02 | 0.00 | 72 | 1015.9 |
| 20260507125203 | 56 | 97 | 2.0 | 6.0 | 0.00 | 0.02 | 0.00 | 72 | 1015.9 |
| 20260507125108 | 56 | 97 | 2.0 | 6.0 | 0.00 | 0.02 | 0.00 | 72 | 1015.9 |
| 20260507125003 | 55 | 92 | 2.0 | 6.0 | 0.00 | 0.02 | 0.00 | 72 | 1015.8 |
| 20260507124903 | 55 | 91 | 2.0 | 6.0 | 0.00 | 0.02 | 0.00 | 72 | 1015.8 |
| 20260507124804 | 55 | 101 | 2.0 | 6.0 | 0.00 | 0.02 | 0.00 | 72 | 1015.9 |
| 20260507124704 | 55 | 102 | 2.0 | 6.0 | 0.00 | 0.02 | 0.00 | 72 | 1015.9 |
| 20260507124616 | 55 | 102 | 2.0 | 6.0 | 0.00 | 0.02 | 0.00 | 72 | 1015.9 |
| 20260507124603 | 55 | 98 | 2.0 | 6.0 | 0.00 | 0.02 | 0.00 | 72 | 1015.9 |
| 20260507124503 | 55 | 93 | 2.0 | 6.0 | 0.00 | 0.02 | 0.00 | 72 | 1015.9 |
| 20260507124303 | 55 | 89 | 2.0 | 6.0 | 0.00 | 0.02 | 0.00 | 73 | 1015.7 |
| 20260507124203 | 55 | 88 | 2.0 | 8.0 | 0.00 | 0.02 | 0.00 | 73 | 1016.0 |
| 20260507124104 | 55 | 92 | 2.0 | 8.0 | 0.00 | 0.02 | 0.00 | 73 | 1015.8 |
| 20260507124013 | 55 | 92 | 2.0 | 8.0 | 0.00 | 0.02 | 0.00 | 73 | 1015.8 |
| 20260507124003 | 55 | 102 | 2.0 | 8.0 | 0.00 | 0.02 | 0.00 | 73 | 1015.8 |
| 20260507123903 | 55 | 103 | 2.0 | 8.0 | 0.00 | 0.02 | 0.00 | 73 | 1015.9 |
| 20260507123703 | 55 | 93 | 2.0 | 8.0 | 0.00 | 0.02 | 0.00 | 73 | 1015.7 |
| 20260507123604 | 55 | 96 | 2.0 | 8.0 | 0.00 | 0.02 | 0.00 | 73 | 1015.9 |
| 20260507123503 | 55 | 103 | 2.0 | 8.0 | 0.00 | 0.02 | 0.00 | 72 | 1015.9 |
| 20260507123404 | 55 | 99 | 2.0 | 8.0 | 0.00 | 0.02 | 0.00 | 73 | 1015.8 |
| 20260507123303 | 55 | 107 | 2.0 | 8.0 | 0.00 | 0.02 | 0.00 | 73 | 1015.8 |
| 20260507123203 | 55 | 111 | 2.0 | 8.0 | 0.00 | 0.02 | 0.00 | 72 | 1016.0 |
| 20260507123103 | 55 | 109 | 2.0 | 8.0 | 0.00 | 0.02 | 0.00 | 72 | 1015.7 |
| 20260507123003 | 55 | 99 | 2.0 | 7.0 | 0.00 | 0.02 | 0.00 | 72 | 1015.7 |
| 20260507122903 | 55 | 88 | 2.0 | 7.0 | 0.00 | 0.02 | 0.00 | 72 | 1015.9 |
| 20260507122803 | 55 | 92 | 2.0 | 7.0 | 0.00 | 0.02 | 0.00 | 72 | 1015.8 |
| 20260507122703 | 55 | 92 | 2.0 | 6.0 | 0.00 | 0.02 | 0.00 | 72 | 1015.7 |
| 20260507122603 | 55 | 86 | 1.0 | 6.0 | 0.00 | 0.02 | 0.00 | 72 | 1015.8 |
| 20260507122504 | 55 | 67 | 2.0 | 6.0 | 0.00 | 0.02 | 0.00 | 72 | 1015.8 |
| 20260507122403 | 55 | 79 | 2.0 | 6.0 | 0.00 | 0.02 | 0.00 | 72 | 1015.7 |
| 20260507122307 | 55 | 70 | 2.0 | 6.0 | 0.00 | 0.02 | 0.00 | 72 | 1015.8 |
| 20260507122204 | 55 | 73 | 2.0 | 6.0 | 0.00 | 0.02 | 0.00 | 72 | 1015.9 |
| 20260507122103 | 55 | 70 | 2.0 | 6.0 | 0.00 | 0.02 | 0.00 | 72 | 1015.8 |
| 20260507122004 | 55 | 65 | 2.0 | 6.0 | 0.00 | 0.02 | 0.00 | 72 | 1015.7 |
| 20260507121913 | 55 | 65 | 2.0 | 6.0 | 0.00 | 0.02 | 0.00 | 72 | 1015.7 |
| 20260507121904 | 55 | 77 | 2.0 | 6.0 | 0.00 | 0.02 | 0.00 | 72 | 1015.7 |
| 20260507121817 | 55 | 77 | 2.0 | 6.0 | 0.00 | 0.02 | 0.00 | 72 | 1015.7 |
| 20260507121803 | 55 | 80 | 2.0 | 6.0 | 0.00 | 0.02 | 0.00 | 72 | 1015.9 |
| 20260507121503 | 55 | 96 | 2.0 | 6.0 | 0.00 | 0.02 | 0.00 | 72 | 1015.9 |
| 20260507121416 | 55 | 96 | 2.0 | 6.0 | 0.00 | 0.02 | 0.00 | 72 | 1015.9 |
| 20260507121403 | 55 | 101 | 2.0 | 6.0 | 0.00 | 0.02 | 0.00 | 72 | 1015.7 |
| 20260507121303 | 55 | 110 | 2.0 | 6.0 | 0.00 | 0.02 | 0.00 | 72 | 1015.9 |
| 20260507121103 | 55 | 95 | 2.0 | 6.0 | 0.00 | 0.02 | 0.00 | 71 | 1015.8 |
| 20260507121003 | 55 | 103 | 2.0 | 6.0 | 0.00 | 0.02 | 0.00 | 72 | 1015.8 |
| 20260507120914 | 55 | 103 | 2.0 | 6.0 | 0.00 | 0.02 | 0.00 | 72 | 1015.8 |
| 20260507120903 | 55 | 100 | 2.0 | 6.0 | 0.00 | 0.02 | 0.00 | 72 | 1015.8 |
| 20260507120803 | 55 | 100 | 2.0 | 6.0 | 0.00 | 0.02 | 0.00 | 72 | 1015.8 |
| 20260507120603 | 55 | 82 | 2.0 | 6.0 | 0.00 | 0.02 | 0.00 | 72 | 1015.7 |
| 20260507120514 | 55 | 82 | 2.0 | 6.0 | 0.00 | 0.02 | 0.00 | 72 | 1015.7 |
| 20260507120503 | 55 | 84 | 2.0 | 6.0 | 0.00 | 0.02 | 0.00 | 72 | 1015.8 |
| 20260507120412 | 55 | 84 | 2.0 | 6.0 | 0.00 | 0.02 | 0.00 | 72 | 1015.8 |
| 20260507120403 | 55 | 87 | 2.0 | 6.0 | 0.00 | 0.02 | 0.00 | 72 | 1015.8 |
| 20260507120215 | 55 | 86 | 2.0 | 6.0 | 0.00 | 0.02 | 0.00 | 72 | 1015.8 |
| 20260507120113 | 55 | 90 | 2.0 | 6.0 | 0.00 | 0.02 | 0.00 | 72 | 1015.9 |
| 20260507120103 | 55 | 93 | 2.0 | 6.0 | 0.00 | 0.02 | 0.00 | 72 | 1015.7 |
| 20260507120017 | 55 | 93 | 2.0 | 6.0 | 0.00 | 0.02 | 0.00 | 72 | 1015.7 |
| 20260507115915 | 55 | 89 | 1.0 | 6.0 | 0.00 | 0.02 | 0.00 | 72 | 1015.8 |
| 20260507115712 | 55 | 96 | 2.0 | 6.0 | 0.00 | 0.02 | 0.00 | 72 | 1015.7 |
| 20260507115603 | 55 | 97 | 2.0 | 6.0 | 0.00 | 0.02 | 0.00 | 71 | 1015.9 |
| 20260507115403 | 55 | 91 | 2.0 | 4.0 | 0.00 | 0.02 | 0.00 | 72 | 1016.0 |
| 20260507115307 | 55 | 83 | 2.0 | 4.0 | 0.00 | 0.02 | 0.00 | 72 | 1016.0 |
| 20260507115203 | 55 | 86 | 1.0 | 4.0 | 0.00 | 0.02 | 0.00 | 72 | 1016.2 |
| 20260507115114 | 55 | 86 | 1.0 | 4.0 | 0.00 | 0.02 | 0.00 | 72 | 1016.2 |
| 20260507115103 | 55 | 82 | 1.0 | 4.0 | 0.00 | 0.02 | 0.00 | 72 | 1016.1 |
| 20260507115018 | 55 | 82 | 1.0 | 4.0 | 0.00 | 0.02 | 0.00 | 72 | 1016.1 |
| 20260507115003 | 55 | 87 | 1.0 | 4.0 | 0.00 | 0.02 | 0.00 | 72 | 1015.9 |
| 20260507114815 | 55 | 85 | 2.0 | 4.0 | 0.00 | 0.02 | 0.00 | 72 | 1015.9 |
| 20260507114704 | 54 | 104 | 2.0 | 7.0 | 0.00 | 0.02 | 0.00 | 71 | 1016.0 |
| 20260507114504 | 55 | 101 | 2.0 | 7.0 | 0.00 | 0.02 | 0.00 | 71 | 1016.2 |
| 20260507114403 | 55 | 98 | 2.0 | 7.0 | 0.00 | 0.02 | 0.00 | 71 | 1015.9 |
| 20260507114304 | 55 | 92 | 2.0 | 7.0 | 0.00 | 0.02 | 0.00 | 71 | 1015.9 |
| 20260507114204 | 55 | 94 | 2.0 | 7.0 | 0.00 | 0.02 | 0.00 | 71 | 1015.9 |
| 20260507114104 | 55 | 95 | 2.0 | 7.0 | 0.00 | 0.02 | 0.00 | 71 | 1015.8 |
| 20260507114003 | 55 | 83 | 2.0 | 7.0 | 0.00 | 0.02 | 0.00 | 71 | 1015.8 |
| 20260507113903 | 55 | 85 | 2.0 | 7.0 | 0.00 | 0.02 | 0.00 | 71 | 1015.8 |
| 20260507113803 | 55 | 82 | 2.0 | 7.0 | 0.00 | 0.02 | 0.00 | 70 | 1015.9 |
| 20260507113703 | 55 | 79 | 2.0 | 7.0 | 0.00 | 0.02 | 0.00 | 70 | 1015.9 |
| 20260507113603 | 55 | 75 | 2.0 | 7.0 | 0.00 | 0.02 | 0.00 | 70 | 1016.0 |
| 20260507113503 | 55 | 91 | 2.0 | 7.0 | 0.00 | 0.02 | 0.00 | 70 | 1016.0 |
| 20260507113403 | 55 | 94 | 2.0 | 7.0 | 0.00 | 0.02 | 0.00 | 70 | 1015.8 |
| 20260507113304 | 55 | 93 | 2.0 | 7.0 | 0.00 | 0.02 | 0.00 | 70 | 1016.1 |
| 20260507113212 | 55 | 93 | 2.0 | 7.0 | 0.00 | 0.02 | 0.00 | 70 | 1016.1 |
| 20260507113203 | 55 | 93 | 2.0 | 7.0 | 0.00 | 0.02 | 0.00 | 70 | 1015.8 |
| 20260507113103 | 55 | 93 | 2.0 | 7.0 | 0.00 | 0.02 | 0.00 | 70 | 1015.8 |
| 20260507112903 | 55 | 99 | 2.0 | 7.0 | 0.00 | 0.02 | 0.00 | 70 | 1015.9 |
| 20260507112804 | 55 | 96 | 2.0 | 7.0 | 0.00 | 0.02 | 0.00 | 69 | 1015.8 |
| 20260507112715 | 55 | 96 | 2.0 | 7.0 | 0.00 | 0.02 | 0.00 | 69 | 1015.8 |
| 20260507112703 | 55 | 98 | 2.0 | 7.0 | 0.00 | 0.02 | 0.00 | 69 | 1015.9 |
| 20260507112603 | 55 | 91 | 2.0 | 7.0 | 0.00 | 0.02 | 0.00 | 69 | 1015.9 |
| 20260507112512 | 55 | 91 | 2.0 | 7.0 | 0.00 | 0.02 | 0.00 | 69 | 1015.9 |
| 20260507112403 | 55 | 88 | 2.0 | 8.0 | 0.00 | 0.02 | 0.00 | 69 | 1016.1 |
| 20260507112203 | 55 | 108 | 2.0 | 8.0 | 0.00 | 0.02 | 0.00 | 69 | 1016.0 |
| 20260507112103 | 55 | 106 | 2.0 | 8.0 | 0.00 | 0.02 | 0.00 | 69 | 1015.9 |
| 20260507112003 | 55 | 108 | 2.0 | 8.0 | 0.00 | 0.02 | 0.00 | 69 | 1016.0 |
| 20260507111904 | 55 | 102 | 2.0 | 8.0 | 0.00 | 0.02 | 0.00 | 69 | 1016.0 |
| 20260507111803 | 55 | 104 | 2.0 | 8.0 | 0.00 | 0.02 | 0.00 | 69 | 1016.0 |
| 20260507111703 | 55 | 108 | 2.0 | 8.0 | 0.00 | 0.02 | 0.00 | 68 | 1016.0 |
| 20260507111603 | 55 | 113 | 2.0 | 8.0 | 0.00 | 0.02 | 0.00 | 68 | 1016.0 |
| 20260507111513 | 55 | 113 | 2.0 | 8.0 | 0.00 | 0.02 | 0.00 | 68 | 1016.0 |
| 20260507111504 | 55 | 114 | 2.0 | 8.0 | 0.00 | 0.02 | 0.00 | 68 | 1015.9 |
| 20260507111403 | 56 | 113 | 2.0 | 8.0 | 0.00 | 0.02 | 0.00 | 68 | 1016.0 |
| 20260507111203 | 56 | 99 | 2.0 | 6.0 | 0.00 | 0.02 | 0.00 | 67 | 1016.0 |
| 20260507111103 | 56 | 106 | 2.0 | 6.0 | 0.00 | 0.02 | 0.00 | 67 | 1016.1 |
| 20260507111003 | 56 | 98 | 2.0 | 4.0 | 0.00 | 0.02 | 0.00 | 67 | 1016.0 |
| 20260507110904 | 56 | 103 | 1.0 | 4.0 | 0.00 | 0.02 | 0.00 | 67 | 1015.9 |
| 20260507110803 | 56 | 100 | 1.0 | 4.0 | 0.00 | 0.02 | 0.00 | 68 | 1015.9 |
| 20260507110703 | 56 | 97 | 1.0 | 4.0 | 0.00 | 0.02 | 0.00 | 68 | 1015.9 |
| 20260507110603 | 56 | 91 | 1.0 | 4.0 | 0.00 | 0.02 | 0.00 | 68 | 1016.0 |
| 20260507110504 | 56 | 93 | 1.0 | 4.0 | 0.00 | 0.02 | 0.00 | 68 | 1016.2 |
| 20260507110403 | 56 | 87 | 1.0 | 4.0 | 0.00 | 0.02 | 0.00 | 68 | 1016.1 |
| 20260507110304 | 56 | 84 | 2.0 | 4.0 | 0.00 | 0.02 | 0.00 | 68 | 1016.0 |
| 20260507110203 | 56 | 84 | 2.0 | 4.0 | 0.00 | 0.02 | 0.00 | 68 | 1015.9 |
| 20260507110003 | 56 | 88 | 1.0 | 4.0 | 0.00 | 0.02 | 0.00 | 67 | 1015.8 |
| 20260507105904 | 56 | 82 | 1.0 | 4.0 | 0.00 | 0.02 | 0.00 | 67 | 1015.9 |
| 20260507105815 | 56 | 82 | 1.0 | 4.0 | 0.00 | 0.02 | 0.00 | 67 | 1015.9 |
| 20260507105804 | 56 | 80 | 2.0 | 4.0 | 0.00 | 0.02 | 0.00 | 67 | 1016.0 |
| 20260507105713 | 56 | 80 | 2.0 | 4.0 | 0.00 | 0.02 | 0.00 | 67 | 1016.0 |
| 20260507105703 | 56 | 79 | 2.0 | 4.0 | 0.00 | 0.02 | 0.00 | 66 | 1015.9 |
| 20260507105403 | 57 | 73 | 2.0 | 4.0 | 0.00 | 0.02 | 0.00 | 66 | 1016.0 |
| 20260507105306 | 57 | 76 | 1.0 | 4.0 | 0.00 | 0.02 | 0.00 | 66 | 1016.0 |
| 20260507105203 | 57 | 76 | 1.0 | 4.0 | 0.00 | 0.02 | 0.00 | 66 | 1016.0 |
| 20260507105103 | 57 | 78 | 1.0 | 4.0 | 0.00 | 0.02 | 0.00 | 66 | 1016.2 |
| 20260507105003 | 57 | 81 | 1.0 | 4.0 | 0.00 | 0.02 | 0.00 | 66 | 1016.2 |
| 20260507104903 | 57 | 88 | 1.0 | 4.0 | 0.00 | 0.02 | 0.00 | 65 | 1016.2 |
| 20260507104815 | 57 | 88 | 1.0 | 4.0 | 0.00 | 0.02 | 0.00 | 65 | 1016.2 |
| 20260507104803 | 57 | 86 | 1.0 | 4.0 | 0.00 | 0.02 | 0.00 | 65 | 1016.0 |
| 20260507104714 | 57 | 86 | 1.0 | 4.0 | 0.00 | 0.02 | 0.00 | 65 | 1016.0 |
| 20260507104703 | 57 | 90 | 1.0 | 4.0 | 0.00 | 0.02 | 0.00 | 65 | 1016.2 |
| 20260507104613 | 57 | 90 | 1.0 | 4.0 | 0.00 | 0.02 | 0.00 | 65 | 1016.2 |
| 20260507104415 | 58 | 84 | 1.0 | 4.0 | 0.00 | 0.02 | 0.00 | 65 | 1016.0 |
| 20260507104304 | 58 | 93 | 1.0 | 4.0 | 0.00 | 0.02 | 0.00 | 64 | 1016.3 |
| 20260507104103 | 58 | 88 | 2.0 | 4.0 | 0.00 | 0.02 | 0.00 | 65 | 1016.0 |
| 20260507104015 | 58 | 88 | 2.0 | 4.0 | 0.00 | 0.02 | 0.00 | 65 | 1016.0 |
| 20260507104003 | 58 | 81 | 2.0 | 4.0 | 0.00 | 0.02 | 0.00 | 65 | 1016.1 |
| 20260507103903 | 58 | 72 | 2.0 | 4.0 | 0.00 | 0.02 | 0.00 | 65 | 1016.1 |
| 20260507103703 | 58 | 68 | 2.0 | 4.0 | 0.00 | 0.02 | 0.00 | 64 | 1016.2 |
| 20260507103607 | 58 | 77 | 2.0 | 4.0 | 0.00 | 0.02 | 0.00 | 64 | 1016.2 |
| 20260507103503 | 58 | 70 | 2.0 | 4.0 | 0.00 | 0.02 | 0.00 | 64 | 1016.0 |
| 20260507103416 | 58 | 70 | 2.0 | 4.0 | 0.00 | 0.02 | 0.00 | 64 | 1016.0 |
| 20260507103403 | 58 | 76 | 2.0 | 4.0 | 0.00 | 0.02 | 0.00 | 65 | 1016.2 |
| 20260507103304 | 58 | 73 | 2.0 | 4.0 | 0.00 | 0.02 | 0.00 | 65 | 1016.2 |
| 20260507103104 | 58 | 77 | 2.0 | 4.0 | 0.00 | 0.02 | 0.00 | 66 | 1016.1 |
| 20260507103003 | 58 | 84 | 2.0 | 6.0 | 0.00 | 0.02 | 0.00 | 66 | 1016.2 |
| 20260507102914 | 58 | 84 | 2.0 | 6.0 | 0.00 | 0.02 | 0.00 | 66 | 1016.2 |
| 20260507102903 | 58 | 98 | 2.0 | 6.0 | 0.00 | 0.02 | 0.00 | 66 | 1016.1 |
| 20260507102817 | 58 | 98 | 2.0 | 6.0 | 0.00 | 0.02 | 0.00 | 66 | 1016.1 |
| 20260507102803 | 58 | 105 | 2.0 | 6.0 | 0.00 | 0.02 | 0.00 | 66 | 1016.2 |
| 20260507102513 | 58 | 103 | 2.0 | 6.0 | 0.00 | 0.02 | 0.00 | 66 | 1016.0 |
| 20260507102504 | 58 | 111 | 2.0 | 6.0 | 0.00 | 0.02 | 0.00 | 66 | 1016.2 |
| 20260507102403 | 58 | 97 | 2.0 | 6.0 | 0.00 | 0.02 | 0.00 | 66 | 1016.2 |
| 20260507102204 | 58 | 80 | 2.0 | 6.0 | 0.00 | 0.02 | 0.00 | 66 | 1016.2 |
| 20260507102103 | 57 | 85 | 2.0 | 6.0 | 0.00 | 0.02 | 0.00 | 66 | 1016.2 |
| 20260507102003 | 57 | 83 | 2.0 | 6.0 | 0.00 | 0.02 | 0.00 | 66 | 1016.3 |
| 20260507101915 | 57 | 83 | 2.0 | 6.0 | 0.00 | 0.02 | 0.00 | 66 | 1016.3 |
| 20260507101903 | 57 | 78 | 2.0 | 6.0 | 0.00 | 0.02 | 0.00 | 66 | 1016.3 |
| 20260507101804 | 58 | 72 | 2.0 | 6.0 | 0.00 | 0.02 | 0.00 | 66 | 1016.0 |
| 20260507101604 | 57 | 55 | 2.0 | 6.0 | 0.00 | 0.02 | 0.00 | 66 | 1016.0 |
| 20260507101503 | 57 | 50 | 2.0 | 6.0 | 0.00 | 0.02 | 0.00 | 66 | 1016.1 |
| 20260507101403 | 57 | 63 | 2.0 | 6.0 | 0.00 | 0.02 | 0.00 | 66 | 1016.0 |
| 20260507101304 | 57 | 56 | 2.0 | 6.0 | 0.00 | 0.02 | 0.00 | 65 | 1016.1 |
| 20260507101203 | 57 | 61 | 2.0 | 6.0 | 0.00 | 0.02 | 0.00 | 65 | 1016.2 |
| 20260507101103 | 57 | 52 | 1.0 | 6.0 | 0.00 | 0.02 | 0.00 | 65 | 1016.1 |
| 20260507101003 | 57 | 48 | 1.0 | 6.0 | 0.00 | 0.02 | 0.00 | 65 | 1016.1 |
| 20260507100916 | 57 | 48 | 1.0 | 6.0 | 0.00 | 0.02 | 0.00 | 65 | 1016.1 |
| 20260507100903 | 57 | 43 | 1.0 | 6.0 | 0.00 | 0.02 | 0.00 | 65 | 1016.1 |
| 20260507100814 | 57 | 43 | 1.0 | 6.0 | 0.00 | 0.02 | 0.00 | 65 | 1016.1 |
| 20260507100803 | 58 | 32 | 1.0 | 6.0 | 0.00 | 0.02 | 0.00 | 65 | 1016.2 |
| 20260507100504 | 58 | 59 | 1.0 | 4.0 | 0.00 | 0.02 | 0.00 | 66 | 1016.1 |
| 20260507100403 | 58 | 64 | 1.0 | 4.0 | 0.00 | 0.02 | 0.00 | 66 | 1015.9 |
| 20260507100303 | 58 | 77 | 1.0 | 3.0 | 0.00 | 0.02 | 0.00 | 66 | 1016.1 |
| 20260507100203 | 58 | 70 | 1.0 | 6.0 | 0.00 | 0.02 | 0.00 | 66 | 1016.0 |
| 20260507100114 | 58 | 70 | 1.0 | 6.0 | 0.00 | 0.02 | 0.00 | 66 | 1016.0 |
| 20260507100103 | 58 | 64 | 2.0 | 6.0 | 0.00 | 0.02 | 0.00 | 66 | 1016.1 |
| 20260507100004 | 58 | 71 | 2.0 | 6.0 | 0.00 | 0.02 | 0.00 | 66 | 1016.1 |
| 20260507095917 | 58 | 71 | 2.0 | 6.0 | 0.00 | 0.02 | 0.00 | 66 | 1016.1 |
| 20260507095803 | 58 | 68 | 2.0 | 6.0 | 0.00 | 0.02 | 0.00 | 66 | 1016.1 |
| 20260507095603 | 57 | 74 | 2.0 | 6.0 | 0.00 | 0.02 | 0.00 | 65 | 1016.1 |
| 20260507095503 | 57 | 71 | 2.0 | 6.0 | 0.00 | 0.02 | 0.00 | 65 | 1015.9 |
| 20260507095403 | 57 | 70 | 2.0 | 6.0 | 0.00 | 0.02 | 0.00 | 65 | 1016.0 |
| 20260507095313 | 57 | 70 | 2.0 | 6.0 | 0.00 | 0.02 | 0.00 | 65 | 1016.0 |
| 20260507095306 | 58 | 59 | 2.0 | 6.0 | 0.00 | 0.02 | 0.00 | 65 | 1016.1 |
| 20260507095203 | 58 | 72 | 2.0 | 6.0 | 0.00 | 0.02 | 0.00 | 65 | 1016.1 |
| 20260507095004 | 58 | 67 | 1.0 | 4.0 | 0.00 | 0.02 | 0.00 | 65 | 1016.1 |
| 20260507094903 | 58 | 71 | 1.0 | 3.0 | 0.00 | 0.02 | 0.00 | 65 | 1016.0 |
| 20260507094803 | 58 | 88 | 1.0 | 3.0 | 0.00 | 0.02 | 0.00 | 65 | 1016.1 |
| 20260507094704 | 58 | 83 | 1.0 | 3.0 | 0.00 | 0.02 | 0.00 | 65 | 1016.0 |
| 20260507094603 | 58 | 82 | 1.0 | 3.0 | 0.00 | 0.02 | 0.00 | 66 | 1016.0 |
| 20260507094504 | 58 | 82 | 1.0 | 3.0 | 0.00 | 0.02 | 0.00 | 65 | 1016.1 |
| 20260507094415 | 58 | 82 | 1.0 | 3.0 | 0.00 | 0.02 | 0.00 | 65 | 1016.1 |
| 20260507094403 | 58 | 80 | 1.0 | 3.0 | 0.00 | 0.02 | 0.00 | 65 | 1016.0 |
| 20260507094303 | 58 | 89 | 1.0 | 4.0 | 0.00 | 0.02 | 0.00 | 66 | 1016.0 |
| 20260507094103 | 58 | 95 | 1.0 | 4.0 | 0.00 | 0.02 | 0.00 | 66 | 1016.1 |
| 20260507094003 | 58 | 99 | 1.0 | 4.0 | 0.00 | 0.02 | 0.00 | 66 | 1016.0 |
| 20260507093913 | 58 | 99 | 1.0 | 4.0 | 0.00 | 0.02 | 0.00 | 66 | 1016.0 |
| 20260507093903 | 58 | 99 | 1.0 | 4.0 | 0.00 | 0.02 | 0.00 | 67 | 1015.9 |
| 20260507093803 | 58 | 96 | 1.0 | 4.0 | 0.00 | 0.02 | 0.00 | 67 | 1016.1 |
| 20260507093614 | 57 | 96 | 1.0 | 4.0 | 0.00 | 0.02 | 0.00 | 68 | 1016.2 |
| 20260507093603 | 57 | 94 | 1.0 | 4.0 | 0.00 | 0.02 | 0.00 | 67 | 1015.9 |
| 20260507093504 | 57 | 95 | 1.0 | 4.0 | 0.00 | 0.02 | 0.00 | 67 | 1016.1 |
| 20260507093303 | 57 | 94 | 1.0 | 4.0 | 0.00 | 0.02 | 0.00 | 67 | 1016.1 |
| 20260507093203 | 56 | 99 | 1.0 | 4.0 | 0.00 | 0.02 | 0.00 | 67 | 1015.9 |
| 20260507093103 | 56 | 104 | 1.0 | 4.0 | 0.00 | 0.02 | 0.00 | 67 | 1016.0 |
| 20260507093016 | 56 | 104 | 1.0 | 4.0 | 0.00 | 0.02 | 0.00 | 67 | 1016.0 |
| 20260507093003 | 56 | 92 | 1.0 | 4.0 | 0.00 | 0.02 | 0.00 | 67 | 1016.1 |
| 20260507092903 | 56 | 91 | 1.0 | 4.0 | 0.00 | 0.02 | 0.00 | 67 | 1015.8 |
| 20260507092703 | 56 | 85 | 1.0 | 4.0 | 0.00 | 0.02 | 0.00 | 66 | 1016.0 |
| 20260507092615 | 56 | 85 | 1.0 | 4.0 | 0.00 | 0.02 | 0.00 | 66 | 1016.0 |
| 20260507092603 | 56 | 90 | 1.0 | 4.0 | 0.00 | 0.02 | 0.00 | 67 | 1016.0 |
| 20260507092503 | 56 | 89 | 1.0 | 4.0 | 0.00 | 0.02 | 0.00 | 66 | 1016.1 |
| 20260507092306 | 56 | 88 | 1.0 | 4.0 | 0.00 | 0.02 | 0.00 | 66 | 1016.0 |
| 20260507092203 | 56 | 85 | 1.0 | 4.0 | 0.00 | 0.02 | 0.00 | 66 | 1016.1 |
| 20260507092103 | 56 | 76 | 1.0 | 4.0 | 0.00 | 0.02 | 0.00 | 67 | 1015.9 |
| 20260507092004 | 56 | 87 | 2.0 | 3.0 | 0.00 | 0.02 | 0.00 | 67 | 1016.0 |
| 20260507091903 | 56 | 88 | 1.0 | 3.0 | 0.00 | 0.02 | 0.00 | 66 | 1015.9 |
| 20260507091804 | 56 | 94 | 1.0 | 3.0 | 0.00 | 0.02 | 0.00 | 66 | 1015.9 |
| 20260507091712 | 56 | 94 | 1.0 | 3.0 | 0.00 | 0.02 | 0.00 | 66 | 1015.9 |
| 20260507091703 | 56 | 95 | 1.0 | 3.0 | 0.00 | 0.02 | 0.00 | 66 | 1015.9 |
| 20260507091603 | 56 | 86 | 1.0 | 4.0 | 0.00 | 0.02 | 0.00 | 66 | 1015.8 |
| 20260507091404 | 56 | 93 | 2.0 | 4.0 | 0.00 | 0.02 | 0.00 | 66 | 1015.9 |
| 20260507091303 | 56 | 90 | 2.0 | 4.0 | 0.00 | 0.02 | 0.00 | 66 | 1015.8 |
| 20260507091215 | 56 | 90 | 2.0 | 4.0 | 0.00 | 0.02 | 0.00 | 66 | 1015.8 |
| 20260507091203 | 56 | 90 | 2.0 | 4.0 | 0.00 | 0.02 | 0.00 | 66 | 1015.9 |
| 20260507091104 | 56 | 81 | 2.0 | 4.0 | 0.00 | 0.02 | 0.00 | 67 | 1015.9 |
| 20260507090903 | 56 | 81 | 1.0 | 4.0 | 0.00 | 0.02 | 0.00 | 67 | 1016.1 |
| 20260507090803 | 56 | 70 | 2.0 | 4.0 | 0.00 | 0.02 | 0.00 | 67 | 1015.8 |
| 20260507090713 | 56 | 70 | 2.0 | 4.0 | 0.00 | 0.02 | 0.00 | 67 | 1015.8 |
| 20260507090703 | 56 | 59 | 2.0 | 4.0 | 0.00 | 0.02 | 0.00 | 67 | 1015.9 |
| 20260507090603 | 56 | 65 | 2.0 | 4.0 | 0.00 | 0.02 | 0.00 | 67 | 1015.9 |
| 20260507090403 | 56 | 61 | 2.0 | 4.0 | 0.00 | 0.02 | 0.00 | 67 | 1015.7 |
| 20260507090313 | 56 | 61 | 2.0 | 4.0 | 0.00 | 0.02 | 0.00 | 67 | 1015.7 |
| 20260507090304 | 56 | 64 | 2.0 | 4.0 | 0.00 | 0.02 | 0.00 | 67 | 1015.6 |
| 20260507090203 | 56 | 55 | 2.0 | 4.0 | 0.00 | 0.02 | 0.00 | 67 | 1015.8 |
| 20260507090005 | 55 | 63 | 2.0 | 4.0 | 0.00 | 0.02 | 0.00 | 66 | 1015.6 |
| 20260507085904 | 55 | 64 | 2.0 | 4.0 | 0.00 | 0.02 | 0.00 | 66 | 1015.7 |
| 20260507085803 | 56 | 79 | 2.0 | 4.0 | 0.00 | 0.02 | 0.00 | 66 | 1015.8 |
| 20260507085703 | 55 | 90 | 1.0 | 4.0 | 0.00 | 0.02 | 0.00 | 66 | 1015.8 |
| 20260507085603 | 56 | 89 | 1.0 | 4.0 | 0.00 | 0.02 | 0.00 | 66 | 1015.8 |
| 20260507085503 | 56 | 88 | 1.0 | 4.0 | 0.00 | 0.02 | 0.00 | 67 | 1015.8 |
| 20260507085403 | 56 | 85 | 1.0 | 4.0 | 0.00 | 0.02 | 0.00 | 67 | 1015.8 |
| 20260507085314 | 56 | 85 | 1.0 | 4.0 | 0.00 | 0.02 | 0.00 | 67 | 1015.8 |
| 20260507085306 | 56 | 81 | 1.0 | 4.0 | 0.00 | 0.02 | 0.00 | 67 | 1015.6 |
| 20260507085203 | 56 | 100 | 1.0 | 4.0 | 0.00 | 0.02 | 0.00 | 67 | 1015.8 |
| 20260507085014 | 56 | 116 | 1.0 | 3.0 | 0.00 | 0.02 | 0.00 | 67 | 1015.8 |
| 20260507085004 | 56 | 119 | 1.0 | 3.0 | 0.00 | 0.02 | 0.00 | 67 | 1015.8 |
| 20260507084904 | 55 | 117 | 1.0 | 3.0 | 0.00 | 0.02 | 0.00 | 67 | 1016.0 |
| 20260507084703 | 55 | 119 | 1.0 | 3.0 | 0.00 | 0.02 | 0.00 | 67 | 1015.9 |
| 20260507084614 | 55 | 119 | 1.0 | 3.0 | 0.00 | 0.02 | 0.00 | 67 | 1015.9 |
| 20260507084603 | 55 | 121 | 1.0 | 3.0 | 0.00 | 0.02 | 0.00 | 67 | 1015.7 |
| 20260507084503 | 55 | 126 | 1.0 | 4.0 | 0.00 | 0.02 | 0.00 | 67 | 1015.7 |
| 20260507084315 | 55 | 126 | 1.0 | 4.0 | 0.00 | 0.02 | 0.00 | 67 | 1015.7 |
| 20260507084303 | 55 | 134 | 1.0 | 4.0 | 0.00 | 0.02 | 0.00 | 67 | 1015.7 |
| 20260507084203 | 55 | 128 | 1.0 | 4.0 | 0.00 | 0.02 | 0.00 | 67 | 1015.8 |
| 20260507084004 | 55 | 125 | 1.0 | 4.0 | 0.00 | 0.02 | 0.00 | 67 | 1015.9 |
| 20260507083914 | 55 | 125 | 1.0 | 4.0 | 0.00 | 0.02 | 0.00 | 67 | 1015.9 |
| 20260507083904 | 55 | 126 | 1.0 | 4.0 | 0.00 | 0.02 | 0.00 | 66 | 1015.8 |
| 20260507083804 | 55 | 126 | 1.0 | 4.0 | 0.00 | 0.02 | 0.00 | 67 | 1015.8 |
| 20260507083716 | 55 | 126 | 1.0 | 4.0 | 0.00 | 0.02 | 0.00 | 67 | 1015.8 |
| 20260507083604 | 55 | 118 | 1.0 | 4.0 | 0.00 | 0.02 | 0.00 | 67 | 1015.7 |
| 20260507083403 | 55 | 113 | 1.0 | 4.0 | 0.00 | 0.02 | 0.00 | 68 | 1015.8 |
| 20260507083303 | 55 | 102 | 1.0 | 4.0 | 0.00 | 0.02 | 0.00 | 68 | 1015.7 |
| 20260507083204 | 55 | 106 | 1.0 | 4.0 | 0.00 | 0.02 | 0.00 | 68 | 1015.6 |
| 20260507083103 | 55 | 109 | 1.0 | 4.0 | 0.00 | 0.02 | 0.00 | 68 | 1015.7 |
| 20260507083004 | 55 | 104 | 1.0 | 4.0 | 0.00 | 0.02 | 0.00 | 68 | 1015.7 |
| 20260507082903 | 55 | 102 | 1.0 | 4.0 | 0.00 | 0.02 | 0.00 | 68 | 1015.6 |
| 20260507082803 | 55 | 98 | 1.0 | 4.0 | 0.00 | 0.02 | 0.00 | 69 | 1015.5 |
| 20260507082712 | 55 | 98 | 1.0 | 4.0 | 0.00 | 0.02 | 0.00 | 69 | 1015.5 |
| 20260507082703 | 55 | 85 | 1.0 | 4.0 | 0.00 | 0.02 | 0.00 | 69 | 1015.6 |
| 20260507082603 | 55 | 87 | 1.0 | 4.0 | 0.00 | 0.02 | 0.00 | 68 | 1015.8 |
| 20260507082403 | 55 | 83 | 1.0 | 4.0 | 0.00 | 0.02 | 0.00 | 68 | 1015.9 |
| 20260507082306 | 55 | 93 | 1.0 | 4.0 | 0.00 | 0.02 | 0.00 | 67 | 1015.6 |
| 20260507082203 | 55 | 88 | 1.0 | 4.0 | 0.00 | 0.02 | 0.00 | 68 | 1015.8 |
| 20260507082104 | 55 | 87 | 2.0 | 4.0 | 0.00 | 0.02 | 0.00 | 68 | 1015.7 |
| 20260507082003 | 55 | 92 | 1.0 | 4.0 | 0.00 | 0.02 | 0.00 | 68 | 1015.8 |
| 20260507081903 | 55 | 93 | 2.0 | 4.0 | 0.00 | 0.02 | 0.00 | 69 | 1015.7 |
| 20260507081803 | 55 | 95 | 2.0 | 4.0 | 0.00 | 0.02 | 0.00 | 69 | 1015.6 |
| 20260507081703 | 55 | 100 | 2.0 | 4.0 | 0.00 | 0.02 | 0.00 | 69 | 1015.8 |
| 20260507081604 | 55 | 103 | 2.0 | 4.0 | 0.00 | 0.02 | 0.00 | 69 | 1015.8 |
| 20260507081503 | 55 | 109 | 2.0 | 4.0 | 0.00 | 0.02 | 0.00 | 69 | 1015.8 |
| 20260507081403 | 55 | 108 | 2.0 | 4.0 | 0.00 | 0.02 | 0.00 | 69 | 1015.5 |
| 20260507081304 | 54 | 104 | 2.0 | 4.0 | 0.00 | 0.02 | 0.00 | 69 | 1015.5 |
| 20260507081216 | 54 | 104 | 2.0 | 4.0 | 0.00 | 0.02 | 0.00 | 69 | 1015.5 |
| 20260507081203 | 54 | 105 | 1.0 | 4.0 | 0.00 | 0.02 | 0.00 | 69 | 1015.7 |
| 20260507081103 | 54 | 103 | 1.0 | 4.0 | 0.00 | 0.02 | 0.00 | 69 | 1015.5 |
| 20260507080903 | 54 | 100 | 1.0 | 3.0 | 0.00 | 0.02 | 0.00 | 69 | 1015.6 |
| 20260507080803 | 55 | 94 | 1.0 | 3.0 | 0.00 | 0.02 | 0.00 | 69 | 1015.7 |
| 20260507080703 | 54 | 90 | 1.0 | 3.0 | 0.00 | 0.02 | 0.00 | 69 | 1015.6 |
| 20260507080604 | 54 | 94 | 1.0 | 3.0 | 0.00 | 0.02 | 0.00 | 70 | 1015.6 |
| 20260507080503 | 54 | 80 | 1.0 | 4.0 | 0.00 | 0.02 | 0.00 | 70 | 1015.6 |
| 20260507080403 | 54 | 63 | 1.0 | 4.0 | 0.00 | 0.02 | 0.00 | 70 | 1015.6 |
| 20260507080303 | 54 | 58 | 1.0 | 4.0 | 0.00 | 0.02 | 0.00 | 70 | 1015.7 |
| 20260507080203 | 54 | 61 | 1.0 | 4.0 | 0.00 | 0.02 | 0.00 | 70 | 1015.6 |
| 20260507080116 | 54 | 61 | 1.0 | 4.0 | 0.00 | 0.02 | 0.00 | 70 | 1015.6 |
| 20260507080104 | 54 | 63 | 1.0 | 4.0 | 0.00 | 0.02 | 0.00 | 70 | 1015.6 |
| 20260507080003 | 54 | 63 | 1.0 | 4.0 | 0.00 | 0.02 | 0.00 | 71 | 1015.5 |
| 20260507075803 | 54 | 71 | 1.0 | 4.0 | 0.00 | 0.02 | 0.00 | 71 | 1015.6 |
| 20260507075703 | 54 | 82 | 1.0 | 4.0 | 0.00 | 0.02 | 0.00 | 71 | 1015.6 |
| 20260507075603 | 54 | 82 | 1.0 | 4.0 | 0.00 | 0.02 | 0.00 | 70 | 1015.6 |
| 20260507075503 | 54 | 96 | 1.0 | 4.0 | 0.00 | 0.02 | 0.00 | 70 | 1015.5 |
| 20260507075403 | 54 | 108 | 1.0 | 4.0 | 0.00 | 0.02 | 0.00 | 71 | 1015.6 |
| 20260507075306 | 54 | 118 | 1.0 | 3.0 | 0.00 | 0.02 | 0.00 | 71 | 1015.6 |
| 20260507075213 | 54 | 118 | 1.0 | 3.0 | 0.00 | 0.02 | 0.00 | 71 | 1015.6 |
| 20260507075204 | 54 | 113 | 1.0 | 3.0 | 0.00 | 0.02 | 0.00 | 71 | 1015.6 |
| 20260507075104 | 54 | 112 | 1.0 | 3.0 | 0.00 | 0.02 | 0.00 | 71 | 1015.6 |
| 20260507074903 | 54 | 111 | 1.0 | 3.0 | 0.00 | 0.02 | 0.00 | 71 | 1015.5 |
| 20260507074803 | 54 | 112 | 1.0 | 3.0 | 0.00 | 0.02 | 0.00 | 71 | 1015.5 |
| 20260507074703 | 53 | 111 | 1.0 | 3.0 | 0.00 | 0.02 | 0.00 | 71 | 1015.7 |
| 20260507074615 | 53 | 111 | 1.0 | 3.0 | 0.00 | 0.02 | 0.00 | 71 | 1015.7 |
| 20260507074603 | 53 | 112 | 1.0 | 3.0 | 0.00 | 0.02 | 0.00 | 71 | 1015.5 |
| 20260507074503 | 53 | 120 | 1.0 | 4.0 | 0.00 | 0.02 | 0.00 | 71 | 1015.6 |
| 20260507074303 | 53 | 118 | 1.0 | 4.0 | 0.00 | 0.02 | 0.00 | 71 | 1015.4 |
| 20260507074214 | 53 | 118 | 1.0 | 4.0 | 0.00 | 0.02 | 0.00 | 71 | 1015.4 |
| 20260507074203 | 53 | 122 | 1.0 | 4.0 | 0.00 | 0.02 | 0.00 | 71 | 1015.4 |
| 20260507074104 | 53 | 120 | 1.0 | 4.0 | 0.00 | 0.02 | 0.00 | 71 | 1015.4 |
| 20260507073904 | 53 | 109 | 1.0 | 4.0 | 0.00 | 0.02 | 0.00 | 71 | 1015.5 |
| 20260507073803 | 53 | 98 | 1.0 | 4.0 | 0.00 | 0.02 | 0.00 | 71 | 1015.6 |
| 20260507073703 | 53 | 99 | 1.0 | 4.0 | 0.00 | 0.02 | 0.00 | 71 | 1015.4 |
| 20260507073603 | 53 | 100 | 1.0 | 4.0 | 0.00 | 0.02 | 0.00 | 71 | 1015.6 |
| 20260507073504 | 53 | 101 | 1.0 | 4.0 | 0.00 | 0.02 | 0.00 | 71 | 1015.6 |
| 20260507073404 | 53 | 89 | 1.0 | 4.0 | 0.00 | 0.02 | 0.00 | 71 | 1015.4 |
| 20260507073303 | 53 | 85 | 1.0 | 4.0 | 0.00 | 0.02 | 0.00 | 71 | 1015.5 |
| 20260507073204 | 53 | 80 | 1.0 | 4.0 | 0.00 | 0.02 | 0.00 | 71 | 1015.4 |
| 20260507073104 | 53 | 77 | 1.0 | 4.0 | 0.00 | 0.02 | 0.00 | 71 | 1015.2 |
| 20260507073004 | 53 | 87 | 1.0 | 4.0 | 0.00 | 0.02 | 0.00 | 72 | 1015.6 |
| 20260507072903 | 53 | 89 | 1.0 | 4.0 | 0.00 | 0.02 | 0.00 | 72 | 1015.5 |
| 20260507072803 | 53 | 101 | 1.0 | 2.0 | 0.00 | 0.02 | 0.00 | 72 | 1015.6 |
| 20260507072703 | 53 | 106 | 1.0 | 2.0 | 0.00 | 0.02 | 0.00 | 72 | 1015.5 |
| 20260507072603 | 53 | 104 | 1.0 | 2.0 | 0.00 | 0.02 | 0.00 | 71 | 1015.4 |
| 20260507072504 | 53 | 105 | 1.0 | 3.0 | 0.00 | 0.02 | 0.00 | 71 | 1015.6 |
| 20260507072403 | 53 | 104 | 1.0 | 3.0 | 0.00 | 0.02 | 0.00 | 71 | 1015.4 |
| 20260507072306 | 53 | 103 | 1.0 | 3.0 | 0.00 | 0.02 | 0.00 | 71 | 1015.2 |
| 20260507072203 | 53 | 101 | 1.0 | 3.0 | 0.00 | 0.02 | 0.00 | 72 | 1015.4 |
| 20260507072104 | 53 | 106 | 1.0 | 3.0 | 0.00 | 0.02 | 0.00 | 72 | 1015.3 |
| 20260507072013 | 53 | 106 | 1.0 | 3.0 | 0.00 | 0.02 | 0.00 | 72 | 1015.3 |
| 20260507072003 | 53 | 105 | 1.0 | 3.0 | 0.00 | 0.02 | 0.00 | 72 | 1015.5 |
| 20260507071904 | 53 | 106 | 1.0 | 3.0 | 0.00 | 0.02 | 0.00 | 72 | 1015.5 |
| 20260507071815 | 53 | 106 | 1.0 | 3.0 | 0.00 | 0.02 | 0.00 | 72 | 1015.5 |
| 20260507071704 | 53 | 107 | 1.0 | 3.0 | 0.00 | 0.02 | 0.00 | 71 | 1015.3 |
| 20260507071504 | 53 | 109 | 1.0 | 3.0 | 0.00 | 0.02 | 0.00 | 72 | 1015.3 |
| 20260507071403 | 53 | 108 | 1.0 | 3.0 | 0.00 | 0.02 | 0.00 | 72 | 1015.4 |
| 20260507071303 | 53 | 111 | 1.0 | 3.0 | 0.00 | 0.02 | 0.00 | 72 | 1015.3 |
| 20260507071204 | 53 | 114 | 1.0 | 3.0 | 0.00 | 0.02 | 0.00 | 72 | 1015.3 |
| 20260507071103 | 53 | 115 | 1.0 | 3.0 | 0.00 | 0.02 | 0.00 | 72 | 1015.2 |
| 20260507071003 | 53 | 115 | 1.0 | 3.0 | 0.00 | 0.02 | 0.00 | 72 | 1015.1 |
| 20260507070904 | 53 | 113 | 1.0 | 3.0 | 0.00 | 0.02 | 0.00 | 72 | 1015.3 |
| 20260507070816 | 53 | 113 | 1.0 | 3.0 | 0.00 | 0.02 | 0.00 | 72 | 1015.3 |
| 20260507070804 | 53 | 107 | 1.0 | 3.0 | 0.00 | 0.02 | 0.00 | 72 | 1015.2 |
| 20260507070704 | 53 | 105 | 1.0 | 3.0 | 0.00 | 0.02 | 0.00 | 72 | 1015.4 |
| 20260507070613 | 53 | 105 | 1.0 | 3.0 | 0.00 | 0.02 | 0.00 | 72 | 1015.4 |
| 20260507070503 | 53 | 99 | 1.0 | 3.0 | 0.00 | 0.02 | 0.00 | 72 | 1015.1 |
| 20260507070303 | 53 | 105 | 1.0 | 3.0 | 0.00 | 0.02 | 0.00 | 72 | 1015.2 |
| 20260507070204 | 53 | 107 | 1.0 | 3.0 | 0.00 | 0.02 | 0.00 | 72 | 1015.5 |
| 20260507070104 | 53 | 108 | 0.0 | 3.0 | 0.00 | 0.02 | 0.00 | 73 | 1015.1 |
| 20260507070008 | 53 | 109 | 0.0 | 3.0 | 0.00 | 0.02 | 0.00 | 73 | 1015.3 |
| 20260507065903 | 52 | 105 | 1.0 | 3.0 | 0.00 | 0.02 | 0.00 | 72 | 1015.2 |
| 20260507065803 | 52 | 110 | 1.0 | 3.0 | 0.00 | 0.02 | 0.00 | 73 | 1015.5 |
| 20260507065703 | 52 | 115 | 1.0 | 3.0 | 0.00 | 0.02 | 0.00 | 73 | 1015.5 |
| 20260507065604 | 52 | 119 | 1.0 | 3.0 | 0.00 | 0.02 | 0.00 | 73 | 1015.2 |
| 20260507065503 | 52 | 121 | 1.0 | 3.0 | 0.00 | 0.02 | 0.00 | 73 | 1015.2 |
| 20260507065416 | 52 | 121 | 1.0 | 3.0 | 0.00 | 0.02 | 0.00 | 73 | 1015.2 |
| 20260507065403 | 52 | 122 | 1.0 | 3.0 | 0.00 | 0.02 | 0.00 | 73 | 1015.1 |
| 20260507065305 | 52 | 121 | 1.0 | 3.0 | 0.00 | 0.02 | 0.00 | 73 | 1015.3 |
| 20260507065103 | 52 | 112 | 1.0 | 3.0 | 0.00 | 0.02 | 0.00 | 73 | 1015.3 |
| 20260507065003 | 52 | 110 | 1.0 | 3.0 | 0.00 | 0.02 | 0.00 | 73 | 1015.3 |
| 20260507064904 | 52 | 112 | 1.0 | 3.0 | 0.00 | 0.02 | 0.00 | 73 | 1015.2 |
| 20260507064813 | 52 | 112 | 1.0 | 3.0 | 0.00 | 0.02 | 0.00 | 73 | 1015.2 |
| 20260507064803 | 52 | 111 | 1.0 | 3.0 | 0.00 | 0.02 | 0.00 | 73 | 1015.2 |
| 20260507064704 | 52 | 110 | 0.0 | 3.0 | 0.00 | 0.02 | 0.00 | 73 | 1015.2 |
| 20260507064503 | 52 | 113 | 0.0 | 3.0 | 0.00 | 0.02 | 0.00 | 73 | 1015.2 |
| 20260507064403 | 52 | 114 | 1.0 | 3.0 | 0.00 | 0.02 | 0.00 | 73 | 1015.1 |
| 20260507064303 | 52 | 114 | 1.0 | 3.0 | 0.00 | 0.02 | 0.00 | 74 | 1015.2 |
| 20260507064203 | 52 | 114 | 1.0 | 3.0 | 0.00 | 0.02 | 0.00 | 74 | 1015.1 |
| 20260507064104 | 52 | 114 | 1.0 | 2.0 | 0.00 | 0.02 | 0.00 | 74 | 1015.2 |
| 20260507064003 | 52 | 116 | 1.0 | 2.0 | 0.00 | 0.02 | 0.00 | 74 | 1015.2 |
| 20260507063903 | 52 | 121 | 1.0 | 2.0 | 0.00 | 0.02 | 0.00 | 74 | 1015.1 |
| 20260507063814 | 52 | 121 | 1.0 | 2.0 | 0.00 | 0.02 | 0.00 | 74 | 1015.1 |
| 20260507063804 | 52 | 120 | 1.0 | 2.0 | 0.00 | 0.02 | 0.00 | 74 | 1015.1 |
| 20260507063704 | 52 | 118 | 1.0 | 2.0 | 0.00 | 0.02 | 0.00 | 74 | 1015.2 |
| 20260507063515 | 52 | 115 | 1.0 | 2.0 | 0.00 | 0.02 | 0.00 | 74 | 1015.0 |
| 20260507063503 | 52 | 112 | 1.0 | 2.0 | 0.00 | 0.02 | 0.00 | 74 | 1015.2 |
| 20260507063403 | 52 | 111 | 1.0 | 2.0 | 0.00 | 0.02 | 0.00 | 74 | 1015.4 |
| 20260507063203 | 52 | 115 | 1.0 | 2.0 | 0.00 | 0.02 | 0.00 | 74 | 1015.1 |
| 20260507063103 | 52 | 116 | 1.0 | 2.0 | 0.00 | 0.02 | 0.00 | 74 | 1015.2 |
| 20260507063004 | 52 | 119 | 1.0 | 2.0 | 0.00 | 0.02 | 0.00 | 74 | 1015.1 |
| 20260507062916 | 52 | 119 | 1.0 | 2.0 | 0.00 | 0.02 | 0.00 | 74 | 1015.1 |
| 20260507062903 | 52 | 117 | 1.0 | 2.0 | 0.00 | 0.02 | 0.00 | 74 | 1015.1 |
| 20260507062803 | 52 | 111 | 1.0 | 2.0 | 0.00 | 0.02 | 0.00 | 74 | 1015.1 |
| 20260507062617 | 52 | 112 | 1.0 | 2.0 | 0.00 | 0.02 | 0.00 | 74 | 1015.1 |
| 20260507062604 | 52 | 115 | 1.0 | 2.0 | 0.00 | 0.02 | 0.00 | 74 | 1015.3 |
| 20260507062503 | 52 | 119 | 1.0 | 3.0 | 0.00 | 0.02 | 0.00 | 74 | 1015.1 |
| 20260507062306 | 52 | 124 | 1.0 | 3.0 | 0.00 | 0.02 | 0.00 | 74 | 1015.1 |
| 20260507062203 | 52 | 121 | 1.0 | 3.0 | 0.00 | 0.02 | 0.00 | 74 | 1015.2 |
| 20260507062103 | 52 | 117 | 1.0 | 3.0 | 0.00 | 0.02 | 0.00 | 74 | 1015.0 |
| 20260507062003 | 52 | 119 | 1.0 | 3.0 | 0.00 | 0.02 | 0.00 | 74 | 1015.1 |
| 20260507061903 | 52 | 119 | 1.0 | 3.0 | 0.00 | 0.02 | 0.00 | 74 | 1015.0 |
| 20260507061816 | 52 | 119 | 1.0 | 3.0 | 0.00 | 0.02 | 0.00 | 74 | 1015.0 |
| 20260507061803 | 52 | 125 | 1.0 | 3.0 | 0.00 | 0.02 | 0.00 | 75 | 1015.1 |
| 20260507061703 | 52 | 127 | 1.0 | 3.0 | 0.00 | 0.02 | 0.00 | 75 | 1015.2 |
| 20260507061503 | 52 | 127 | 1.0 | 3.0 | 0.00 | 0.02 | 0.00 | 74 | 1015.0 |
| 20260507061403 | 51 | 124 | 1.0 | 3.0 | 0.00 | 0.02 | 0.00 | 75 | 1015.2 |
| 20260507061303 | 52 | 118 | 1.0 | 3.0 | 0.00 | 0.02 | 0.00 | 75 | 1015.0 |
| 20260507061212 | 52 | 118 | 1.0 | 3.0 | 0.00 | 0.02 | 0.00 | 75 | 1015.0 |
| 20260507061203 | 51 | 121 | 1.0 | 3.0 | 0.00 | 0.02 | 0.00 | 75 | 1015.2 |
| 20260507061103 | 51 | 126 | 0.0 | 3.0 | 0.00 | 0.02 | 0.00 | 75 | 1015.1 |
| 20260507060903 | 51 | 126 | 0.0 | 3.0 | 0.00 | 0.02 | 0.00 | 75 | 1014.8 |
| 20260507060804 | 51 | 125 | 0.0 | 3.0 | 0.00 | 0.02 | 0.00 | 75 | 1015.1 |
| 20260507060703 | 51 | 121 | 0.0 | 3.0 | 0.00 | 0.02 | 0.00 | 75 | 1014.9 |
| 20260507060603 | 51 | 119 | 0.0 | 3.0 | 0.00 | 0.02 | 0.00 | 74 | 1014.9 |
| 20260507060518 | 51 | 119 | 0.0 | 3.0 | 0.00 | 0.02 | 0.00 | 74 | 1014.9 |
| 20260507060504 | 51 | 115 | 0.0 | 3.0 | 0.00 | 0.02 | 0.00 | 75 | 1015.1 |
| 20260507060404 | 51 | 109 | 0.0 | 3.0 | 0.00 | 0.02 | 0.00 | 75 | 1015.0 |
| 20260507060315 | 51 | 109 | 0.0 | 3.0 | 0.00 | 0.02 | 0.00 | 75 | 1015.0 |
| 20260507060213 | 51 | 108 | 0.0 | 3.0 | 0.00 | 0.02 | 0.00 | 75 | 1014.9 |
| 20260507060204 | 51 | 107 | 0.0 | 2.0 | 0.00 | 0.02 | 0.00 | 75 | 1015.0 |
| 20260507055903 | 51 | 112 | 0.0 | 2.0 | 0.00 | 0.02 | 0.00 | 75 | 1014.9 |
| 20260507055804 | 51 | 113 | 0.0 | 2.0 | 0.00 | 0.02 | 0.00 | 75 | 1014.9 |
| 20260507055703 | 51 | 116 | 0.0 | 2.0 | 0.00 | 0.02 | 0.00 | 75 | 1014.9 |
| 20260507055603 | 51 | 118 | 0.0 | 2.0 | 0.00 | 0.02 | 0.00 | 75 | 1014.7 |
| 20260507055503 | 51 | 121 | 1.0 | 2.0 | 0.00 | 0.02 | 0.00 | 75 | 1014.8 |
| 20260507055403 | 51 | 126 | 0.0 | 2.0 | 0.00 | 0.02 | 0.00 | 75 | 1014.9 |
| 20260507055305 | 51 | 125 | 0.0 | 2.0 | 0.00 | 0.02 | 0.00 | 75 | 1014.8 |
| 20260507055203 | 51 | 124 | 0.0 | 2.0 | 0.00 | 0.02 | 0.00 | 75 | 1014.8 |
| 20260507055104 | 51 | 122 | 0.0 | 2.0 | 0.00 | 0.02 | 0.00 | 75 | 1014.8 |
| 20260507055003 | 51 | 122 | 0.0 | 2.0 | 0.00 | 0.02 | 0.00 | 75 | 1014.7 |
| 20260507054903 | 51 | 121 | 0.0 | 2.0 | 0.00 | 0.02 | 0.00 | 75 | 1014.8 |
| 20260507054803 | 51 | 121 | 0.0 | 2.0 | 0.00 | 0.02 | 0.00 | 75 | 1014.8 |
| 20260507054703 | 51 | 119 | 0.0 | 2.0 | 0.00 | 0.02 | 0.00 | 75 | 1014.9 |
| 20260507054616 | 51 | 119 | 0.0 | 2.0 | 0.00 | 0.02 | 0.00 | 75 | 1014.9 |
| 20260507054603 | 51 | 119 | 1.0 | 2.0 | 0.00 | 0.02 | 0.00 | 75 | 1014.8 |
| 20260507054503 | 51 | 120 | 1.0 | 2.0 | 0.00 | 0.02 | 0.00 | 75 | 1014.7 |
| 20260507054413 | 51 | 120 | 1.0 | 2.0 | 0.00 | 0.02 | 0.00 | 75 | 1014.7 |
| 20260507054304 | 51 | 120 | 1.0 | 2.0 | 0.00 | 0.02 | 0.00 | 75 | 1014.8 |
| 20260507054215 | 51 | 120 | 1.0 | 2.0 | 0.00 | 0.02 | 0.00 | 75 | 1014.8 |
| 20260507054103 | 51 | 119 | 1.0 | 2.0 | 0.00 | 0.02 | 0.00 | 75 | 1014.7 |
| 20260507053903 | 51 | 117 | 1.0 | 2.0 | 0.00 | 0.02 | 0.00 | 75 | 1014.9 |
| 20260507053803 | 51 | 115 | 1.0 | 2.0 | 0.00 | 0.02 | 0.00 | 75 | 1014.9 |
| 20260507053703 | 51 | 112 | 1.0 | 6.0 | 0.00 | 0.02 | 0.00 | 75 | 1014.7 |
| 20260507053617 | 51 | 112 | 1.0 | 6.0 | 0.00 | 0.02 | 0.00 | 75 | 1014.7 |
| 20260507053603 | 51 | 104 | 1.0 | 6.0 | 0.00 | 0.02 | 0.00 | 75 | 1014.7 |
| 20260507053503 | 51 | 106 | 1.0 | 6.0 | 0.00 | 0.02 | 0.00 | 75 | 1014.6 |
| 20260507053304 | 51 | 108 | 1.0 | 6.0 | 0.00 | 0.02 | 0.00 | 76 | 1014.7 |
| 20260507053203 | 51 | 108 | 1.0 | 6.0 | 0.00 | 0.02 | 0.00 | 76 | 1014.7 |
| 20260507053115 | 51 | 108 | 1.0 | 6.0 | 0.00 | 0.02 | 0.00 | 76 | 1014.7 |
| 20260507053104 | 51 | 108 | 1.0 | 6.0 | 0.00 | 0.02 | 0.00 | 76 | 1014.6 |
| 20260507053003 | 51 | 109 | 1.0 | 6.0 | 0.00 | 0.02 | 0.00 | 76 | 1014.7 |
| 20260507052803 | 51 | 112 | 1.0 | 6.0 | 0.00 | 0.02 | 0.00 | 76 | 1014.8 |
| 20260507052704 | 51 | 115 | 1.0 | 6.0 | 0.00 | 0.02 | 0.00 | 76 | 1014.7 |
| 20260507052612 | 51 | 115 | 1.0 | 6.0 | 0.00 | 0.02 | 0.00 | 76 | 1014.7 |
| 20260507052604 | 51 | 122 | 1.0 | 6.0 | 0.00 | 0.02 | 0.00 | 76 | 1014.9 |
| 20260507052503 | 51 | 124 | 1.0 | 3.0 | 0.00 | 0.02 | 0.00 | 76 | 1014.8 |
| 20260507052306 | 51 | 121 | 1.0 | 3.0 | 0.00 | 0.02 | 0.00 | 76 | 1014.8 |
| 20260507052204 | 51 | 123 | 1.0 | 3.0 | 0.00 | 0.02 | 0.00 | 76 | 1014.7 |
| 20260507052103 | 51 | 125 | 1.0 | 3.0 | 0.00 | 0.02 | 0.00 | 76 | 1014.7 |
| 20260507052003 | 51 | 127 | 0.0 | 3.0 | 0.00 | 0.02 | 0.00 | 76 | 1014.7 |
| 20260507051903 | 51 | 126 | 0.0 | 3.0 | 0.00 | 0.02 | 0.00 | 76 | 1014.6 |
| 20260507051803 | 51 | 125 | 0.0 | 3.0 | 0.00 | 0.02 | 0.00 | 76 | 1014.6 |
| 20260507051703 | 51 | 123 | 0.0 | 3.0 | 0.00 | 0.02 | 0.00 | 76 | 1014.5 |
| 20260507051603 | 51 | 120 | 0.0 | 3.0 | 0.00 | 0.02 | 0.00 | 76 | 1014.6 |
| 20260507051503 | 51 | 120 | 0.0 | 3.0 | 0.00 | 0.02 | 0.00 | 76 | 1014.6 |
| 20260507051403 | 51 | 116 | 0.0 | 3.0 | 0.00 | 0.02 | 0.00 | 76 | 1014.8 |
| 20260507051314 | 51 | 115 | 0.0 | 2.0 | 0.00 | 0.02 | 0.00 | 76 | 1014.8 |
| 20260507051203 | 51 | 112 | 0.0 | 2.0 | 0.00 | 0.02 | 0.00 | 76 | 1014.8 |
| 20260507051003 | 50 | 103 | 0.0 | 2.0 | 0.00 | 0.02 | 0.00 | 77 | 1014.7 |
| 20260507050903 | 50 | 102 | 0.0 | 3.0 | 0.00 | 0.02 | 0.00 | 77 | 1014.6 |
| 20260507050803 | 50 | 101 | 0.0 | 3.0 | 0.00 | 0.02 | 0.00 | 77 | 1014.7 |
| 20260507050703 | 50 | 96 | 0.0 | 3.0 | 0.00 | 0.02 | 0.00 | 77 | 1014.7 |
| 20260507050603 | 50 | 97 | 0.0 | 3.0 | 0.00 | 0.02 | 0.00 | 77 | 1014.6 |
| 20260507050503 | 50 | 96 | 0.0 | 3.0 | 0.00 | 0.02 | 0.00 | 77 | 1014.5 |
| 20260507050403 | 50 | 95 | 0.0 | 3.0 | 0.00 | 0.02 | 0.00 | 78 | 1014.8 |
| 20260507050315 | 50 | 95 | 0.0 | 3.0 | 0.00 | 0.02 | 0.00 | 78 | 1014.8 |
| 20260507050303 | 50 | 96 | 0.0 | 3.0 | 0.00 | 0.02 | 0.00 | 78 | 1014.7 |
| 20260507050203 | 50 | 98 | 0.0 | 3.0 | 0.00 | 0.02 | 0.00 | 78 | 1014.5 |
| 20260507050004 | 50 | 104 | 0.0 | 3.0 | 0.00 | 0.02 | 0.00 | 78 | 1014.6 |
| 20260507045903 | 50 | 103 | 0.0 | 3.0 | 0.00 | 0.02 | 0.00 | 78 | 1014.5 |
| 20260507045803 | 50 | 106 | 0.0 | 3.0 | 0.00 | 0.02 | 0.00 | 78 | 1014.4 |
| 20260507045704 | 50 | 112 | 0.0 | 2.0 | 0.00 | 0.02 | 0.00 | 78 | 1014.6 |
| 20260507045615 | 50 | 112 | 0.0 | 2.0 | 0.00 | 0.02 | 0.00 | 78 | 1014.6 |
| 20260507045604 | 50 | 112 | 0.0 | 2.0 | 0.00 | 0.02 | 0.00 | 78 | 1014.6 |
| 20260507045503 | 50 | 111 | 0.0 | 2.0 | 0.00 | 0.02 | 0.00 | 78 | 1014.5 |
| 20260507045306 | 50 | 111 | 0.0 | 2.0 | 0.00 | 0.02 | 0.00 | 78 | 1014.6 |
| 20260507045203 | 50 | 111 | 0.0 | 2.0 | 0.00 | 0.02 | 0.00 | 78 | 1014.6 |
| 20260507045103 | 50 | 112 | 0.0 | 2.0 | 0.00 | 0.02 | 0.00 | 78 | 1014.5 |
| 20260507045003 | 50 | 112 | 0.0 | 2.0 | 0.00 | 0.02 | 0.00 | 78 | 1014.6 |
| 20260507044916 | 50 | 112 | 0.0 | 2.0 | 0.00 | 0.02 | 0.00 | 78 | 1014.6 |
| 20260507044903 | 50 | 113 | 1.0 | 2.0 | 0.00 | 0.02 | 0.00 | 78 | 1014.5 |
| 20260507044804 | 50 | 110 | 1.0 | 2.0 | 0.00 | 0.02 | 0.00 | 78 | 1014.4 |
| 20260507044603 | 50 | 106 | 0.0 | 2.0 | 0.00 | 0.02 | 0.00 | 79 | 1014.4 |
| 20260507044503 | 50 | 104 | 0.0 | 2.0 | 0.00 | 0.02 | 0.00 | 79 | 1014.5 |
| 20260507044403 | 50 | 103 | 1.0 | 2.0 | 0.00 | 0.02 | 0.00 | 79 | 1014.6 |
| 20260507044303 | 50 | 103 | 1.0 | 2.0 | 0.00 | 0.02 | 0.00 | 79 | 1014.6 |
| 20260507044204 | 50 | 101 | 1.0 | 2.0 | 0.00 | 0.02 | 0.00 | 79 | 1014.6 |
| 20260507044114 | 50 | 101 | 1.0 | 2.0 | 0.00 | 0.02 | 0.00 | 79 | 1014.6 |
| 20260507044103 | 50 | 102 | 0.0 | 2.0 | 0.00 | 0.02 | 0.00 | 79 | 1014.5 |
| 20260507044004 | 50 | 103 | 0.0 | 3.0 | 0.00 | 0.02 | 0.00 | 79 | 1014.4 |
| 20260507043803 | 50 | 108 | 0.0 | 3.0 | 0.00 | 0.02 | 0.00 | 79 | 1014.6 |
| 20260507043703 | 50 | 108 | 0.0 | 3.0 | 0.00 | 0.02 | 0.00 | 79 | 1014.3 |
| 20260507043603 | 50 | 110 | 0.0 | 3.0 | 0.00 | 0.02 | 0.00 | 79 | 1014.3 |
| 20260507043503 | 50 | 113 | 0.0 | 3.0 | 0.00 | 0.02 | 0.00 | 79 | 1014.5 |
| 20260507043404 | 50 | 114 | 0.0 | 3.0 | 0.00 | 0.02 | 0.00 | 79 | 1014.3 |
| 20260507043304 | 50 | 114 | 0.0 | 3.0 | 0.00 | 0.02 | 0.00 | 79 | 1014.4 |
| 20260507043217 | 50 | 114 | 0.0 | 3.0 | 0.00 | 0.02 | 0.00 | 79 | 1014.4 |
| 20260507043203 | 50 | 114 | 0.0 | 3.0 | 0.00 | 0.02 | 0.00 | 79 | 1014.4 |
| 20260507043103 | 50 | 110 | 0.0 | 3.0 | 0.00 | 0.02 | 0.00 | 79 | 1014.4 |
| 20260507042904 | 50 | 103 | 0.0 | 2.0 | 0.00 | 0.02 | 0.00 | 79 | 1014.4 |
| 20260507042816 | 50 | 103 | 0.0 | 2.0 | 0.00 | 0.02 | 0.00 | 79 | 1014.4 |
| 20260507042803 | 50 | 100 | 0.0 | 2.0 | 0.00 | 0.02 | 0.00 | 79 | 1014.3 |
| 20260507042704 | 50 | 100 | 1.0 | 2.0 | 0.00 | 0.02 | 0.00 | 79 | 1014.4 |
| 20260507042503 | 50 | 97 | 1.0 | 2.0 | 0.00 | 0.02 | 0.00 | 79 | 1014.4 |
| 20260507042403 | 50 | 93 | 0.0 | 2.0 | 0.00 | 0.02 | 0.00 | 79 | 1014.3 |
| 20260507042306 | 50 | 88 | 1.0 | 2.0 | 0.00 | 0.02 | 0.00 | 80 | 1014.4 |
| 20260507042203 | 50 | 85 | 1.0 | 2.0 | 0.00 | 0.02 | 0.00 | 80 | 1014.5 |
| 20260507042103 | 50 | 78 | 0.0 | 3.0 | 0.00 | 0.02 | 0.00 | 80 | 1014.3 |
| 20260507042004 | 50 | 80 | 1.0 | 3.0 | 0.00 | 0.02 | 0.00 | 80 | 1014.2 |
| 20260507041904 | 50 | 66 | 0.0 | 3.0 | 0.00 | 0.02 | 0.00 | 80 | 1014.2 |
| 20260507041804 | 50 | 65 | 0.0 | 3.0 | 0.00 | 0.02 | 0.00 | 80 | 1014.3 |
| 20260507041716 | 50 | 65 | 0.0 | 3.0 | 0.00 | 0.02 | 0.00 | 80 | 1014.3 |
| 20260507041703 | 50 | 70 | 0.0 | 3.0 | 0.00 | 0.02 | 0.00 | 80 | 1014.4 |
| 20260507041603 | 50 | 73 | 0.0 | 3.0 | 0.00 | 0.02 | 0.00 | 80 | 1014.4 |
| 20260507041403 | 50 | 79 | 0.0 | 3.0 | 0.00 | 0.02 | 0.00 | 80 | 1014.4 |
| 20260507041303 | 50 | 83 | 0.0 | 3.0 | 0.00 | 0.02 | 0.00 | 80 | 1014.4 |
| 20260507041204 | 50 | 89 | 0.0 | 3.0 | 0.00 | 0.02 | 0.00 | 80 | 1014.3 |
| 20260507041103 | 50 | 93 | 0.0 | 3.0 | 0.00 | 0.02 | 0.00 | 80 | 1014.4 |
| 20260507041016 | 50 | 93 | 0.0 | 3.0 | 0.00 | 0.02 | 0.00 | 80 | 1014.4 |
| 20260507041003 | 50 | 102 | 0.0 | 3.0 | 0.00 | 0.02 | 0.00 | 80 | 1014.2 |
| 20260507040903 | 50 | 113 | 0.0 | 2.0 | 0.00 | 0.02 | 0.00 | 80 | 1014.3 |
| 20260507040703 | 50 | 114 | 0.0 | 2.0 | 0.00 | 0.02 | 0.00 | 80 | 1014.4 |
| 20260507040604 | 50 | 115 | 0.0 | 2.0 | 0.00 | 0.02 | 0.00 | 80 | 1014.3 |
| 20260507040503 | 50 | 117 | 0.0 | 2.0 | 0.00 | 0.02 | 0.00 | 80 | 1014.3 |
| 20260507040412 | 50 | 117 | 0.0 | 2.0 | 0.00 | 0.02 | 0.00 | 80 | 1014.3 |
| 20260507040403 | 50 | 119 | 0.0 | 2.0 | 0.00 | 0.02 | 0.00 | 80 | 1014.2 |
| 20260507040303 | 50 | 122 | 0.0 | 2.0 | 0.00 | 0.02 | 0.00 | 80 | 1014.4 |
| 20260507040003 | 50 | 129 | 0.0 | 2.0 | 0.00 | 0.02 | 0.00 | 80 | 1014.3 |
| 20260507035903 | 50 | 128 | 0.0 | 3.0 | 0.00 | 0.02 | 0.00 | 80 | 1014.3 |
| 20260507035804 | 50 | 123 | 0.0 | 3.0 | 0.00 | 0.02 | 0.00 | 80 | 1014.4 |
| 20260507035703 | 50 | 125 | 0.0 | 3.0 | 0.00 | 0.02 | 0.00 | 80 | 1014.3 |
| 20260507035616 | 50 | 125 | 0.0 | 3.0 | 0.00 | 0.02 | 0.00 | 80 | 1014.3 |
| 20260507035604 | 50 | 123 | 0.0 | 3.0 | 0.00 | 0.02 | 0.00 | 80 | 1014.4 |
| 20260507035503 | 50 | 123 | 0.0 | 3.0 | 0.00 | 0.02 | 0.00 | 80 | 1014.4 |
| 20260507035204 | 50 | 111 | 0.0 | 3.0 | 0.00 | 0.02 | 0.00 | 80 | 1014.4 |
| 20260507035103 | 50 | 109 | 0.0 | 3.0 | 0.00 | 0.02 | 0.00 | 79 | 1014.3 |
| 20260507035003 | 50 | 106 | 0.0 | 3.0 | 0.00 | 0.02 | 0.00 | 79 | 1014.2 |
| 20260507034903 | 50 | 103 | 0.0 | 3.0 | 0.00 | 0.02 | 0.00 | 79 | 1014.1 |
| 20260507034803 | 50 | 103 | 0.0 | 3.0 | 0.00 | 0.02 | 0.00 | 79 | 1014.2 |
| 20260507034703 | 50 | 93 | 0.0 | 2.0 | 0.00 | 0.02 | 0.00 | 79 | 1014.2 |
| 20260507034603 | 50 | 94 | 0.0 | 2.0 | 0.00 | 0.02 | 0.00 | 79 | 1014.2 |
| 20260507034504 | 50 | 97 | 0.0 | 2.0 | 0.00 | 0.02 | 0.00 | 79 | 1014.3 |
| 20260507034404 | 50 | 99 | 0.0 | 2.0 | 0.00 | 0.02 | 0.00 | 79 | 1014.4 |
| 20260507034303 | 50 | 106 | 0.0 | 2.0 | 0.00 | 0.02 | 0.00 | 79 | 1014.3 |
| 20260507034217 | 50 | 106 | 0.0 | 2.0 | 0.00 | 0.02 | 0.00 | 79 | 1014.3 |
| 20260507034203 | 50 | 112 | 0.0 | 2.0 | 0.00 | 0.02 | 0.00 | 79 | 1014.2 |
| 20260507034103 | 50 | 112 | 0.0 | 2.0 | 0.00 | 0.02 | 0.00 | 79 | 1014.2 |
| 20260507033904 | 50 | 115 | 0.0 | 2.0 | 0.00 | 0.02 | 0.00 | 79 | 1014.2 |
| 20260507033804 | 50 | 115 | 0.0 | 2.0 | 0.00 | 0.02 | 0.00 | 79 | 1014.3 |
| 20260507033704 | 50 | 116 | 0.0 | 2.0 | 0.00 | 0.02 | 0.00 | 79 | 1014.3 |
| 20260507033603 | 50 | 116 | 0.0 | 2.0 | 0.00 | 0.02 | 0.00 | 79 | 1014.3 |
| 20260507033503 | 50 | 116 | 0.0 | 2.0 | 0.00 | 0.02 | 0.00 | 79 | 1014.2 |
| 20260507033404 | 50 | 117 | 0.0 | 2.0 | 0.00 | 0.02 | 0.00 | 79 | 1014.3 |
| 20260507033303 | 50 | 119 | 0.0 | 2.0 | 0.00 | 0.02 | 0.00 | 80 | 1014.2 |
| 20260507033212 | 50 | 119 | 0.0 | 2.0 | 0.00 | 0.02 | 0.00 | 80 | 1014.2 |
| 20260507033203 | 50 | 121 | 0.0 | 1.0 | 0.00 | 0.02 | 0.00 | 80 | 1014.2 |
| 20260507033104 | 50 | 120 | 0.0 | 2.0 | 0.00 | 0.02 | 0.00 | 80 | 1014.3 |
| 20260507032913 | 50 | 118 | 0.0 | 2.0 | 0.00 | 0.02 | 0.00 | 80 | 1014.2 |
| 20260507032903 | 50 | 117 | 0.0 | 2.0 | 0.00 | 0.02 | 0.00 | 80 | 1014.4 |
| 20260507032804 | 50 | 119 | 0.0 | 2.0 | 0.00 | 0.02 | 0.00 | 80 | 1014.3 |
| 20260507032603 | 50 | 119 | 0.0 | 2.0 | 0.00 | 0.02 | 0.00 | 80 | 1014.3 |
| 20260507032504 | 50 | 118 | 0.0 | 2.0 | 0.00 | 0.02 | 0.00 | 80 | 1014.3 |
| 20260507032407 | 50 | 118 | 0.0 | 2.0 | 0.00 | 0.02 | 0.00 | 80 | 1014.1 |
| 20260507032305 | 50 | 119 | 0.0 | 2.0 | 0.00 | 0.02 | 0.00 | 80 | 1014.3 |
| 20260507032213 | 50 | 119 | 0.0 | 2.0 | 0.00 | 0.02 | 0.00 | 80 | 1014.3 |
| 20260507032203 | 50 | 120 | 0.0 | 2.0 | 0.00 | 0.02 | 0.00 | 80 | 1014.1 |
| 20260507032117 | 50 | 120 | 0.0 | 2.0 | 0.00 | 0.02 | 0.00 | 80 | 1014.1 |
| 20260507032104 | 50 | 122 | 0.0 | 2.0 | 0.00 | 0.02 | 0.00 | 80 | 1014.2 |
| 20260507031804 | 50 | 122 | 0.0 | 1.0 | 0.00 | 0.02 | 0.00 | 80 | 1014.2 |
| 20260507031703 | 50 | 122 | 0.0 | 1.0 | 0.00 | 0.02 | 0.00 | 80 | 1014.2 |
| 20260507031603 | 50 | 121 | 0.0 | 1.0 | 0.00 | 0.02 | 0.00 | 80 | 1014.2 |
| 20260507031513 | 50 | 121 | 0.0 | 1.0 | 0.00 | 0.02 | 0.00 | 80 | 1014.2 |
| 20260507031503 | 50 | 120 | 0.0 | 1.0 | 0.00 | 0.02 | 0.00 | 80 | 1014.2 |
| 20260507031404 | 50 | 119 | 0.0 | 1.0 | 0.00 | 0.02 | 0.00 | 80 | 1014.3 |
| 20260507031214 | 50 | 116 | 0.0 | 1.0 | 0.00 | 0.02 | 0.00 | 80 | 1014.5 |
| 20260507031203 | 50 | 115 | 0.0 | 1.0 | 0.00 | 0.02 | 0.00 | 80 | 1014.2 |
| 20260507031103 | 50 | 114 | 0.0 | 1.0 | 0.00 | 0.02 | 0.00 | 80 | 1014.2 |
| 20260507030903 | 50 | 112 | 0.0 | 1.0 | 0.00 | 0.02 | 0.00 | 80 | 1014.2 |
| 20260507030803 | 50 | 112 | 0.0 | 1.0 | 0.00 | 0.02 | 0.00 | 80 | 1014.1 |
| 20260507030703 | 50 | 112 | 0.0 | 1.0 | 0.00 | 0.02 | 0.00 | 80 | 1014.3 |
| 20260507030603 | 50 | 110 | 0.0 | 1.0 | 0.00 | 0.02 | 0.00 | 80 | 1014.4 |
| 20260507030503 | 50 | 108 | 0.0 | 1.0 | 0.00 | 0.02 | 0.00 | 80 | 1014.2 |
| 20260507030403 | 50 | 107 | 0.0 | 2.0 | 0.00 | 0.02 | 0.00 | 80 | 1014.3 |
| 20260507030304 | 50 | 107 | 0.0 | 2.0 | 0.00 | 0.02 | 0.00 | 80 | 1014.4 |
| 20260507030215 | 50 | 107 | 0.0 | 2.0 | 0.00 | 0.02 | 0.00 | 80 | 1014.4 |
| 20260507030203 | 50 | 100 | 0.0 | 2.0 | 0.00 | 0.02 | 0.00 | 80 | 1014.3 |
| 20260507025903 | 50 | 91 | 0.0 | 2.0 | 0.00 | 0.02 | 0.00 | 80 | 1014.2 |
| 20260507025803 | 50 | 93 | 0.0 | 2.0 | 0.00 | 0.02 | 0.00 | 80 | 1014.2 |
| 20260507025704 | 50 | 93 | 0.0 | 2.0 | 0.00 | 0.02 | 0.00 | 80 | 1014.1 |
| 20260507025604 | 50 | 93 | 0.0 | 2.0 | 0.00 | 0.02 | 0.00 | 80 | 1014.2 |
| 20260507025503 | 50 | 95 | 0.0 | 2.0 | 0.00 | 0.02 | 0.00 | 80 | 1014.0 |
| 20260507025403 | 50 | 94 | 0.0 | 2.0 | 0.00 | 0.02 | 0.00 | 80 | 1014.1 |
| 20260507025306 | 50 | 94 | 0.0 | 2.0 | 0.00 | 0.02 | 0.00 | 80 | 1014.3 |
| 20260507025203 | 50 | 99 | 0.0 | 2.0 | 0.00 | 0.02 | 0.00 | 80 | 1014.0 |
| 20260507025115 | 50 | 99 | 0.0 | 2.0 | 0.00 | 0.02 | 0.00 | 80 | 1014.0 |
| 20260507025104 | 50 | 99 | 0.0 | 2.0 | 0.00 | 0.02 | 0.00 | 80 | 1014.2 |
| 20260507025003 | 50 | 102 | 0.0 | 2.0 | 0.00 | 0.02 | 0.00 | 80 | 1014.1 |
| 20260507024803 | 50 | 116 | 0.0 | 1.0 | 0.00 | 0.02 | 0.00 | 80 | 1013.9 |
| 20260507024703 | 50 | 111 | 0.0 | 1.0 | 0.00 | 0.02 | 0.00 | 80 | 1014.2 |
| 20260507024604 | 50 | 110 | 0.0 | 1.0 | 0.00 | 0.02 | 0.00 | 80 | 1014.1 |
| 20260507024504 | 50 | 109 | 0.0 | 1.0 | 0.00 | 0.02 | 0.00 | 80 | 1014.1 |
| 20260507024403 | 50 | 106 | 0.0 | 2.0 | 0.00 | 0.02 | 0.00 | 80 | 1014.1 |
| 20260507024313 | 50 | 106 | 0.0 | 2.0 | 0.00 | 0.02 | 0.00 | 80 | 1014.1 |
| 20260507024303 | 50 | 103 | 0.0 | 2.0 | 0.00 | 0.02 | 0.00 | 80 | 1014.1 |
| 20260507024203 | 50 | 101 | 0.0 | 2.0 | 0.00 | 0.02 | 0.00 | 80 | 1013.9 |
| 20260507024003 | 50 | 109 | 0.0 | 2.0 | 0.00 | 0.02 | 0.00 | 80 | 1014.1 |
| 20260507023903 | 50 | 114 | 0.0 | 2.0 | 0.00 | 0.02 | 0.00 | 80 | 1014.1 |
| 20260507023803 | 50 | 120 | 0.0 | 2.0 | 0.00 | 0.02 | 0.00 | 80 | 1014.1 |
| 20260507023704 | 50 | 121 | 0.0 | 2.0 | 0.00 | 0.02 | 0.00 | 80 | 1014.1 |
| 20260507023603 | 50 | 121 | 0.0 | 2.0 | 0.00 | 0.02 | 0.00 | 80 | 1014.0 |
| 20260507023503 | 50 | 123 | 0.0 | 2.0 | 0.00 | 0.02 | 0.00 | 80 | 1013.9 |
| 20260507023403 | 50 | 126 | 0.0 | 2.0 | 0.00 | 0.02 | 0.00 | 80 | 1013.8 |
| 20260507023303 | 50 | 130 | 0.0 | 2.0 | 0.00 | 0.02 | 0.00 | 80 | 1014.1 |
| 20260507023203 | 50 | 134 | 0.0 | 2.0 | 0.00 | 0.02 | 0.00 | 80 | 1014.1 |
| 20260507023103 | 50 | 130 | 0.0 | 2.0 | 0.00 | 0.02 | 0.00 | 80 | 1014.0 |
| 20260507023003 | 50 | 130 | 0.0 | 2.0 | 0.00 | 0.02 | 0.00 | 80 | 1014.1 |
| 20260507022903 | 50 | 129 | 0.0 | 2.0 | 0.00 | 0.02 | 0.00 | 80 | 1014.0 |
| 20260507022804 | 50 | 126 | 0.0 | 2.0 | 0.00 | 0.02 | 0.00 | 80 | 1014.1 |
| 20260507022704 | 50 | 129 | 0.0 | 2.0 | 0.00 | 0.02 | 0.00 | 80 | 1014.1 |
| 20260507022603 | 50 | 131 | 0.0 | 2.0 | 0.00 | 0.02 | 0.00 | 80 | 1014.0 |
| 20260507022504 | 50 | 131 | 0.0 | 2.0 | 0.00 | 0.02 | 0.00 | 80 | 1014.1 |
| 20260507022403 | 50 | 131 | 0.0 | 2.0 | 0.00 | 0.02 | 0.00 | 80 | 1014.1 |
| 20260507022306 | 50 | 130 | 0.0 | 2.0 | 0.00 | 0.02 | 0.00 | 80 | 1014.1 |
| 20260507022203 | 50 | 132 | 0.0 | 2.0 | 0.00 | 0.02 | 0.00 | 80 | 1014.1 |
| 20260507022104 | 50 | 131 | 0.0 | 2.0 | 0.00 | 0.02 | 0.00 | 80 | 1014.2 |
| 20260507022003 | 50 | 128 | 0.0 | 2.0 | 0.00 | 0.02 | 0.00 | 80 | 1014.1 |
| 20260507021915 | 50 | 128 | 0.0 | 2.0 | 0.00 | 0.02 | 0.00 | 80 | 1014.1 |
| 20260507021903 | 50 | 127 | 0.0 | 2.0 | 0.00 | 0.02 | 0.00 | 80 | 1014.2 |
| 20260507021803 | 50 | 126 | 0.0 | 2.0 | 0.00 | 0.02 | 0.00 | 80 | 1014.2 |
| 20260507021615 | 50 | 126 | 0.0 | 2.0 | 0.00 | 0.02 | 0.00 | 80 | 1014.1 |
| 20260507021604 | 50 | 125 | 0.0 | 2.0 | 0.00 | 0.02 | 0.00 | 80 | 1014.0 |
| 20260507021503 | 50 | 125 | 0.0 | 2.0 | 0.00 | 0.02 | 0.00 | 80 | 1014.0 |
| 20260507021316 | 50 | 121 | 0.0 | 2.0 | 0.00 | 0.02 | 0.00 | 80 | 1014.0 |
| 20260507021303 | 50 | 118 | 0.0 | 2.0 | 0.00 | 0.02 | 0.00 | 80 | 1014.0 |
| 20260507021203 | 50 | 116 | 0.0 | 2.0 | 0.00 | 0.02 | 0.00 | 80 | 1014.2 |
| 20260507021003 | 50 | 107 | 0.0 | 3.0 | 0.00 | 0.02 | 0.00 | 80 | 1014.1 |
| 20260507020904 | 50 | 102 | 0.0 | 3.0 | 0.00 | 0.02 | 0.00 | 80 | 1014.1 |
| 20260507020814 | 50 | 102 | 0.0 | 3.0 | 0.00 | 0.02 | 0.00 | 80 | 1014.1 |
| 20260507020803 | 50 | 100 | 0.0 | 3.0 | 0.00 | 0.02 | 0.00 | 80 | 1014.2 |
| 20260507020713 | 50 | 100 | 0.0 | 3.0 | 0.00 | 0.02 | 0.00 | 80 | 1014.2 |
| 20260507020704 | 50 | 98 | 0.0 | 3.0 | 0.00 | 0.02 | 0.00 | 80 | 1014.0 |
| 20260507020403 | 50 | 92 | 0.0 | 3.0 | 0.00 | 0.02 | 0.00 | 80 | 1014.1 |
| 20260507020312 | 50 | 92 | 0.0 | 3.0 | 0.00 | 0.02 | 0.00 | 80 | 1014.1 |
| 20260507020303 | 50 | 93 | 0.0 | 3.0 | 0.00 | 0.02 | 0.00 | 80 | 1014.1 |
| 20260507020203 | 50 | 96 | 0.0 | 3.0 | 0.00 | 0.02 | 0.00 | 80 | 1014.1 |
| 20260507020003 | 50 | 103 | 0.0 | 3.0 | 0.00 | 0.02 | 0.00 | 80 | 1014.0 |
| 20260507015903 | 50 | 107 | 0.0 | 2.0 | 0.00 | 0.02 | 0.00 | 80 | 1014.0 |
| 20260507015815 | 50 | 107 | 0.0 | 2.0 | 0.00 | 0.02 | 0.00 | 80 | 1014.0 |
| 20260507015803 | 50 | 112 | 0.0 | 2.0 | 0.00 | 0.02 | 0.00 | 80 | 1013.8 |
| 20260507015703 | 50 | 116 | 0.0 | 2.0 | 0.00 | 0.02 | 0.00 | 80 | 1014.0 |
| 20260507015504 | 50 | 131 | 0.0 | 2.0 | 0.00 | 0.02 | 0.00 | 80 | 1013.9 |
| 20260507015403 | 50 | 139 | 0.0 | 2.0 | 0.00 | 0.02 | 0.00 | 80 | 1014.1 |
| 20260507015306 | 50 | 139 | 0.0 | 2.0 | 0.00 | 0.02 | 0.00 | 80 | 1013.9 |
| 20260507015203 | 50 | 136 | 0.0 | 2.0 | 0.00 | 0.02 | 0.00 | 80 | 1014.0 |
| 20260507015104 | 50 | 134 | 0.0 | 2.0 | 0.00 | 0.02 | 0.00 | 80 | 1013.9 |
| 20260507015004 | 50 | 131 | 0.0 | 2.0 | 0.00 | 0.02 | 0.00 | 80 | 1014.0 |
| 20260507014903 | 50 | 131 | 0.0 | 2.0 | 0.00 | 0.02 | 0.00 | 80 | 1013.9 |
| 20260507014804 | 50 | 129 | 0.0 | 2.0 | 0.00 | 0.02 | 0.00 | 80 | 1013.9 |
| 20260507014703 | 50 | 124 | 0.0 | 2.0 | 0.00 | 0.02 | 0.00 | 80 | 1014.0 |
| 20260507014604 | 50 | 124 | 1.0 | 2.0 | 0.00 | 0.02 | 0.00 | 79 | 1014.0 |
| 20260507014503 | 50 | 120 | 1.0 | 2.0 | 0.00 | 0.02 | 0.00 | 79 | 1013.8 |
| 20260507014403 | 50 | 115 | 1.0 | 2.0 | 0.00 | 0.02 | 0.00 | 79 | 1014.0 |
| 20260507014303 | 50 | 114 | 1.0 | 2.0 | 0.00 | 0.02 | 0.00 | 79 | 1014.1 |
| 20260507014203 | 50 | 110 | 1.0 | 2.0 | 0.00 | 0.02 | 0.00 | 79 | 1014.0 |
| 20260507014103 | 50 | 107 | 0.0 | 2.0 | 0.00 | 0.02 | 0.00 | 79 | 1014.1 |
| 20260507014015 | 50 | 107 | 0.0 | 2.0 | 0.00 | 0.02 | 0.00 | 79 | 1014.1 |
| 20260507014003 | 50 | 111 | 0.0 | 2.0 | 0.00 | 0.02 | 0.00 | 79 | 1013.8 |
| 20260507013903 | 50 | 114 | 0.0 | 2.0 | 0.00 | 0.02 | 0.00 | 79 | 1014.1 |
| 20260507013704 | 50 | 116 | 1.0 | 2.0 | 0.00 | 0.02 | 0.00 | 79 | 1014.0 |
| 20260507013603 | 50 | 116 | 0.0 | 2.0 | 0.00 | 0.02 | 0.00 | 79 | 1014.0 |
| 20260507013518 | 50 | 116 | 0.0 | 2.0 | 0.00 | 0.02 | 0.00 | 79 | 1014.0 |
| 20260507013503 | 50 | 120 | 0.0 | 2.0 | 0.00 | 0.02 | 0.00 | 79 | 1014.1 |
| 20260507013403 | 50 | 123 | 0.0 | 2.0 | 0.00 | 0.02 | 0.00 | 79 | 1013.9 |
| 20260507013204 | 50 | 120 | 0.0 | 2.0 | 0.00 | 0.02 | 0.00 | 79 | 1014.1 |
| 20260507013103 | 50 | 121 | 0.0 | 2.0 | 0.00 | 0.02 | 0.00 | 79 | 1014.0 |
| 20260507013016 | 50 | 121 | 0.0 | 2.0 | 0.00 | 0.02 | 0.00 | 79 | 1014.0 |
| 20260507013003 | 50 | 120 | 1.0 | 2.0 | 0.00 | 0.02 | 0.00 | 79 | 1014.0 |
| 20260507012903 | 50 | 118 | 1.0 | 3.0 | 0.00 | 0.02 | 0.00 | 79 | 1013.9 |
| 20260507012704 | 50 | 110 | 1.0 | 3.0 | 0.00 | 0.02 | 0.00 | 79 | 1013.8 |
| 20260507012615 | 50 | 110 | 1.0 | 3.0 | 0.00 | 0.02 | 0.00 | 79 | 1013.8 |
| 20260507012604 | 50 | 110 | 1.0 | 3.0 | 0.00 | 0.02 | 0.00 | 79 | 1014.1 |
| 20260507012503 | 50 | 110 | 1.0 | 3.0 | 0.00 | 0.02 | 0.00 | 79 | 1014.1 |
| 20260507012306 | 50 | 109 | 0.0 | 3.0 | 0.00 | 0.02 | 0.00 | 79 | 1013.9 |
| 20260507012203 | 50 | 108 | 0.0 | 3.0 | 0.00 | 0.02 | 0.00 | 79 | 1014.0 |
| 20260507012113 | 50 | 108 | 0.0 | 3.0 | 0.00 | 0.02 | 0.00 | 79 | 1014.0 |
| 20260507012104 | 50 | 104 | 0.0 | 3.0 | 0.00 | 0.02 | 0.00 | 79 | 1014.1 |
| 20260507012003 | 50 | 99 | 0.0 | 3.0 | 0.00 | 0.02 | 0.00 | 79 | 1013.9 |
| 20260507011807 | 50 | 95 | 0.0 | 3.0 | 0.00 | 0.02 | 0.00 | 79 | 1014.1 |
| 20260507011703 | 50 | 90 | 0.0 | 1.0 | 0.00 | 0.02 | 0.00 | 79 | 1014.0 |
| 20260507011616 | 50 | 90 | 0.0 | 1.0 | 0.00 | 0.02 | 0.00 | 79 | 1014.0 |
| 20260507011603 | 50 | 88 | 0.0 | 1.0 | 0.00 | 0.02 | 0.00 | 79 | 1014.0 |
| 20260507011503 | 50 | 84 | 0.0 | 1.0 | 0.00 | 0.02 | 0.00 | 79 | 1014.2 |
| 20260507011317 | 50 | 84 | 0.0 | 1.0 | 0.00 | 0.02 | 0.00 | 79 | 1014.0 |
| 20260507011304 | 50 | 84 | 0.0 | 2.0 | 0.00 | 0.02 | 0.00 | 79 | 1014.2 |
| 20260507011215 | 50 | 84 | 0.0 | 2.0 | 0.00 | 0.02 | 0.00 | 79 | 1014.2 |
| 20260507011203 | 50 | 86 | 0.0 | 2.0 | 0.00 | 0.02 | 0.00 | 79 | 1014.1 |
| 20260507010803 | 50 | 87 | 0.0 | 2.0 | 0.00 | 0.02 | 0.00 | 79 | 1014.1 |
| 20260507010617 | 50 | 89 | 0.0 | 2.0 | 0.00 | 0.02 | 0.00 | 79 | 1014.0 |
| 20260507010516 | 50 | 90 | 0.0 | 2.0 | 0.00 | 0.02 | 0.00 | 79 | 1013.9 |
| 20260507010503 | 50 | 87 | 0.0 | 2.0 | 0.00 | 0.02 | 0.00 | 79 | 1014.0 |
| 20260507010313 | 50 | 84 | 0.0 | 2.0 | 0.00 | 0.02 | 0.00 | 79 | 1013.9 |
| 20260507010203 | 50 | 84 | 0.0 | 2.0 | 0.00 | 0.02 | 0.00 | 79 | 1014.0 |
| 20260507010003 | 50 | 86 | 0.0 | 2.0 | 0.00 | 0.02 | 0.00 | 79 | 1013.9 |
| 20260507005903 | 50 | 87 | 0.0 | 2.0 | 0.00 | 0.02 | 0.00 | 79 | 1013.9 |
| 20260507005803 | 50 | 89 | 0.0 | 2.0 | 0.00 | 0.02 | 0.00 | 79 | 1014.0 |
| 20260507005704 | 50 | 90 | 0.0 | 2.0 | 0.00 | 0.02 | 0.00 | 79 | 1013.8 |
| 20260507005603 | 50 | 92 | 0.0 | 3.0 | 0.00 | 0.02 | 0.00 | 79 | 1013.9 |
| 20260507005517 | 50 | 92 | 0.0 | 3.0 | 0.00 | 0.02 | 0.00 | 79 | 1013.9 |
| 20260507005503 | 50 | 101 | 0.0 | 3.0 | 0.00 | 0.02 | 0.00 | 79 | 1014.0 |
| 20260507005403 | 50 | 105 | 0.0 | 3.0 | 0.00 | 0.02 | 0.00 | 79 | 1014.0 |
| 20260507005204 | 50 | 84 | 1.0 | 3.0 | 0.00 | 0.02 | 0.00 | 79 | 1013.8 |
| 20260507005103 | 50 | 75 | 1.0 | 3.0 | 0.00 | 0.02 | 0.00 | 79 | 1014.0 |
| 20260507005003 | 50 | 71 | 1.0 | 3.0 | 0.00 | 0.02 | 0.00 | 79 | 1014.0 |
| 20260507004903 | 50 | 67 | 1.0 | 3.0 | 0.00 | 0.02 | 0.00 | 79 | 1013.9 |
| 20260507004803 | 50 | 66 | 1.0 | 3.0 | 0.00 | 0.02 | 0.00 | 79 | 1014.0 |
| 20260507004703 | 50 | 62 | 1.0 | 3.0 | 0.00 | 0.02 | 0.00 | 79 | 1014.0 |
| 20260507004603 | 50 | 56 | 1.0 | 3.0 | 0.00 | 0.02 | 0.00 | 79 | 1013.8 |
| 20260507004503 | 50 | 47 | 1.0 | 3.0 | 0.00 | 0.02 | 0.00 | 79 | 1014.1 |
| 20260507004416 | 50 | 47 | 1.0 | 3.0 | 0.00 | 0.02 | 0.00 | 79 | 1014.1 |
| 20260507004404 | 50 | 39 | 1.0 | 3.0 | 0.00 | 0.02 | 0.00 | 79 | 1013.7 |
| 20260507004303 | 50 | 38 | 1.0 | 4.0 | 0.00 | 0.02 | 0.00 | 79 | 1014.1 |
| 20260507004103 | 50 | 53 | 0.0 | 4.0 | 0.00 | 0.02 | 0.00 | 79 | 1013.9 |
| 20260507004003 | 50 | 53 | 0.0 | 4.0 | 0.00 | 0.02 | 0.00 | 80 | 1013.8 |
| 20260507003914 | 50 | 53 | 0.0 | 4.0 | 0.00 | 0.02 | 0.00 | 80 | 1013.8 |
| 20260507003903 | 50 | 54 | 0.0 | 4.0 | 0.00 | 0.02 | 0.00 | 80 | 1013.9 |
| 20260507003804 | 50 | 51 | 0.0 | 4.0 | 0.00 | 0.02 | 0.00 | 80 | 1013.6 |
| 20260507003603 | 50 | 52 | 0.0 | 4.0 | 0.00 | 0.02 | 0.00 | 80 | 1013.8 |
| 20260507003503 | 50 | 54 | 0.0 | 4.0 | 0.00 | 0.02 | 0.00 | 80 | 1013.8 |
| 20260507003403 | 50 | 56 | 0.0 | 4.0 | 0.00 | 0.02 | 0.00 | 80 | 1014.1 |
| 20260507003304 | 50 | 56 | 0.0 | 4.0 | 0.00 | 0.02 | 0.00 | 79 | 1013.8 |
| 20260507003203 | 50 | 61 | 0.0 | 4.0 | 0.00 | 0.02 | 0.00 | 79 | 1013.8 |
| 20260507003103 | 50 | 52 | 0.0 | 3.0 | 0.00 | 0.02 | 0.00 | 79 | 1013.8 |
| 20260507003003 | 50 | 50 | 0.0 | 3.0 | 0.00 | 0.02 | 0.00 | 79 | 1013.9 |
| 20260507002903 | 50 | 48 | 0.0 | 3.0 | 0.00 | 0.02 | 0.00 | 79 | 1013.9 |
| 20260507002803 | 50 | 58 | 0.0 | 3.0 | 0.00 | 0.02 | 0.00 | 79 | 1014.0 |
| 20260507002703 | 50 | 67 | 0.0 | 3.0 | 0.00 | 0.02 | 0.00 | 79 | 1013.9 |
| 20260507002603 | 50 | 71 | 0.0 | 3.0 | 0.00 | 0.02 | 0.00 | 79 | 1014.0 |
| 20260507002504 | 50 | 72 | 0.0 | 3.0 | 0.00 | 0.02 | 0.00 | 79 | 1014.0 |
| 20260507002403 | 50 | 75 | 0.0 | 3.0 | 0.00 | 0.02 | 0.00 | 79 | 1013.9 |
| 20260507002306 | 50 | 84 | 0.0 | 3.0 | 0.00 | 0.02 | 0.00 | 79 | 1013.9 |
| 20260507002203 | 50 | 82 | 0.0 | 2.0 | 0.00 | 0.02 | 0.00 | 79 | 1013.9 |
| 20260507002104 | 50 | 82 | 0.0 | 3.0 | 0.00 | 0.02 | 0.00 | 79 | 1013.9 |
| 20260507002004 | 50 | 88 | 0.0 | 3.0 | 0.00 | 0.02 | 0.00 | 79 | 1013.8 |
| 20260507001903 | 50 | 90 | 0.0 | 3.0 | 0.00 | 0.02 | 0.00 | 79 | 1013.9 |
| 20260507001803 | 50 | 88 | 0.0 | 3.0 | 0.00 | 0.02 | 0.00 | 79 | 1014.1 |
| 20260507001703 | 50 | 83 | 0.0 | 3.0 | 0.00 | 0.02 | 0.00 | 79 | 1014.1 |
| 20260507001603 | 50 | 86 | 0.0 | 3.0 | 0.00 | 0.02 | 0.00 | 79 | 1013.9 |
| 20260507001503 | 50 | 88 | 0.0 | 3.0 | 0.00 | 0.02 | 0.00 | 79 | 1013.9 |
| 20260507001404 | 50 | 90 | 0.0 | 3.0 | 0.00 | 0.02 | 0.00 | 79 | 1014.0 |
| 20260507001304 | 50 | 92 | 0.0 | 4.0 | 0.00 | 0.02 | 0.00 | 79 | 1014.0 |
| 20260507001203 | 50 | 101 | 0.0 | 4.0 | 0.00 | 0.02 | 0.00 | 79 | 1013.9 |
| 20260507001104 | 50 | 104 | 0.0 | 4.0 | 0.00 | 0.02 | 0.00 | 79 | 1014.0 |
| 20260507001003 | 50 | 103 | 0.0 | 4.0 | 0.00 | 0.02 | 0.00 | 79 | 1013.9 |
| 20260507000904 | 50 | 105 | 0.0 | 4.0 | 0.00 | 0.02 | 0.00 | 79 | 1013.9 |
| 20260507000803 | 50 | 108 | 0.0 | 4.0 | 0.00 | 0.02 | 0.00 | 79 | 1014.0 |
| 20260507000714 | 50 | 108 | 0.0 | 4.0 | 0.00 | 0.02 | 0.00 | 79 | 1014.0 |
| 20260507000703 | 50 | 114 | 0.0 | 4.0 | 0.00 | 0.02 | 0.00 | 79 | 1013.9 |
| 20260507000603 | 50 | 116 | 0.0 | 4.0 | 0.00 | 0.02 | 0.00 | 79 | 1013.9 |
| 20260507000405 | 50 | 117 | 0.0 | 4.0 | 0.00 | 0.02 | 0.00 | 79 | 1014.1 |
| 20260507000303 | 50 | 118 | 0.0 | 4.0 | 0.00 | 0.02 | 0.00 | 79 | 1014.0 |
| 20260507000205 | 50 | 118 | 0.0 | 4.0 | 0.00 | 0.02 | 0.00 | 79 | 1014.1 |
| 20260507000003 | 50 | 120 | 0.0 | 2.0 | 0.00 | 0.02 | 0.00 | 79 | 1014.0 |
| 20260506235904 | 50 | 119 | 0.0 | 2.0 | 0.00 | 0.02 | 0.00 | 79 | 1014.2 |
| 20260506235803 | 50 | 114 | 0.0 | 2.0 | 0.00 | 0.02 | 0.00 | 79 | 1014.0 |
| 20260506235704 | 50 | 106 | 0.0 | 2.0 | 0.00 | 0.02 | 0.00 | 79 | 1014.2 |
| 20260506235603 | 50 | 99 | 0.0 | 2.0 | 0.00 | 0.02 | 0.00 | 79 | 1014.1 |
| 20260506235504 | 50 | 101 | 0.0 | 2.0 | 0.00 | 0.02 | 0.00 | 79 | 1013.9 |
| 20260506235403 | 50 | 101 | 0.0 | 2.0 | 0.00 | 0.02 | 0.00 | 79 | 1014.0 |
| 20260506235306 | 50 | 101 | 0.0 | 2.0 | 0.00 | 0.02 | 0.00 | 79 | 1014.0 |
| 20260506235204 | 50 | 98 | 0.0 | 2.0 | 0.00 | 0.02 | 0.00 | 79 | 1014.0 |
| 20260506235103 | 50 | 96 | 0.0 | 2.0 | 0.00 | 0.02 | 0.00 | 79 | 1014.0 |
| 20260506235003 | 50 | 94 | 0.0 | 2.0 | 0.00 | 0.02 | 0.00 | 79 | 1014.0 |
| 20260506234903 | 50 | 95 | 0.0 | 2.0 | 0.00 | 0.02 | 0.00 | 79 | 1014.1 |
| 20260506234804 | 50 | 105 | 0.0 | 2.0 | 0.00 | 0.02 | 0.00 | 79 | 1013.9 |
| 20260506234704 | 50 | 111 | 0.0 | 2.0 | 0.00 | 0.02 | 0.00 | 79 | 1014.0 |
| 20260506234603 | 50 | 120 | 0.0 | 2.0 | 0.00 | 0.02 | 0.00 | 79 | 1014.0 |
| 20260506234503 | 50 | 120 | 0.0 | 2.0 | 0.00 | 0.02 | 0.00 | 79 | 1014.1 |
| 20260506234403 | 50 | 120 | 0.0 | 2.0 | 0.00 | 0.02 | 0.00 | 79 | 1014.0 |
| 20260506234315 | 50 | 120 | 0.0 | 2.0 | 0.00 | 0.02 | 0.00 | 79 | 1014.0 |
| 20260506234303 | 50 | 120 | 0.0 | 3.0 | 0.00 | 0.02 | 0.00 | 79 | 1014.0 |
| 20260506234204 | 50 | 120 | 0.0 | 3.0 | 0.00 | 0.02 | 0.00 | 79 | 1014.0 |
| 20260506234003 | 50 | 115 | 0.0 | 3.0 | 0.00 | 0.02 | 0.00 | 79 | 1014.1 |
| 20260506233915 | 50 | 115 | 0.0 | 3.0 | 0.00 | 0.02 | 0.00 | 79 | 1014.1 |
| 20260506233903 | 50 | 115 | 0.0 | 3.0 | 0.00 | 0.02 | 0.00 | 79 | 1014.0 |
| 20260506233803 | 50 | 113 | 0.0 | 3.0 | 0.00 | 0.02 | 0.00 | 79 | 1013.9 |
| 20260506233604 | 50 | 109 | 1.0 | 4.0 | 0.00 | 0.02 | 0.00 | 79 | 1014.0 |
| 20260506233503 | 50 | 104 | 1.0 | 4.0 | 0.00 | 0.02 | 0.00 | 79 | 1013.8 |
| 20260506233403 | 50 | 100 | 1.0 | 4.0 | 0.00 | 0.02 | 0.00 | 79 | 1013.8 |
| 20260506233316 | 50 | 100 | 1.0 | 4.0 | 0.00 | 0.02 | 0.00 | 79 | 1013.8 |
| 20260506233303 | 50 | 99 | 1.0 | 4.0 | 0.00 | 0.02 | 0.00 | 79 | 1014.0 |
| 20260506233203 | 50 | 100 | 1.0 | 4.0 | 0.00 | 0.02 | 0.00 | 79 | 1013.9 |
| 20260506233003 | 50 | 102 | 1.0 | 4.0 | 0.00 | 0.02 | 0.00 | 79 | 1013.9 |
| 20260506232904 | 50 | 101 | 1.0 | 4.0 | 0.00 | 0.02 | 0.00 | 79 | 1014.0 |
| 20260506232814 | 50 | 101 | 1.0 | 4.0 | 0.00 | 0.02 | 0.00 | 79 | 1014.0 |
| 20260506232803 | 50 | 100 | 1.0 | 4.0 | 0.00 | 0.02 | 0.00 | 79 | 1013.8 |
| 20260506232703 | 50 | 104 | 1.0 | 4.0 | 0.00 | 0.02 | 0.00 | 79 | 1013.9 |
| 20260506232503 | 50 | 115 | 1.0 | 3.0 | 0.00 | 0.02 | 0.00 | 79 | 1013.8 |
| 20260506232404 | 50 | 114 | 1.0 | 3.0 | 0.00 | 0.02 | 0.00 | 79 | 1013.6 |
| 20260506232306 | 50 | 109 | 1.0 | 3.0 | 0.00 | 0.02 | 0.00 | 79 | 1013.7 |
| 20260506232216 | 50 | 109 | 1.0 | 3.0 | 0.00 | 0.02 | 0.00 | 79 | 1013.7 |
| 20260506232203 | 50 | 107 | 1.0 | 3.0 | 0.00 | 0.02 | 0.00 | 79 | 1013.8 |
| 20260506232103 | 50 | 108 | 1.0 | 3.0 | 0.00 | 0.02 | 0.00 | 79 | 1013.8 |
| 20260506232018 | 50 | 108 | 1.0 | 3.0 | 0.00 | 0.02 | 0.00 | 79 | 1013.8 |
| 20260506231917 | 50 | 110 | 1.0 | 3.0 | 0.00 | 0.02 | 0.00 | 79 | 1013.8 |
| 20260506231903 | 50 | 110 | 1.0 | 3.0 | 0.00 | 0.02 | 0.00 | 79 | 1013.7 |
| 20260506231603 | 50 | 109 | 1.0 | 3.0 | 0.00 | 0.02 | 0.00 | 79 | 1013.9 |
| 20260506231504 | 50 | 103 | 1.0 | 3.0 | 0.00 | 0.02 | 0.00 | 79 | 1013.9 |
| 20260506231403 | 50 | 103 | 1.0 | 3.0 | 0.00 | 0.02 | 0.00 | 79 | 1013.9 |
| 20260506231303 | 50 | 101 | 0.0 | 2.0 | 0.00 | 0.02 | 0.00 | 79 | 1014.0 |
| 20260506231203 | 50 | 95 | 0.0 | 2.0 | 0.00 | 0.02 | 0.00 | 79 | 1013.9 |
| 20260506231103 | 50 | 87 | 1.0 | 2.0 | 0.00 | 0.02 | 0.00 | 79 | 1013.7 |
| 20260506231003 | 50 | 79 | 0.0 | 2.0 | 0.00 | 0.02 | 0.00 | 79 | 1013.9 |
| 20260506230903 | 50 | 79 | 0.0 | 2.0 | 0.00 | 0.02 | 0.00 | 79 | 1013.9 |
| 20260506230803 | 50 | 82 | 0.0 | 2.0 | 0.00 | 0.02 | 0.00 | 79 | 1013.9 |
| 20260506230703 | 50 | 82 | 0.0 | 2.0 | 0.00 | 0.02 | 0.00 | 79 | 1014.0 |
| 20260506230603 | 50 | 79 | 0.0 | 2.0 | 0.00 | 0.02 | 0.00 | 79 | 1013.9 |
| 20260506230503 | 50 | 79 | 1.0 | 2.0 | 0.00 | 0.02 | 0.00 | 79 | 1013.8 |
| 20260506230403 | 50 | 82 | 1.0 | 2.0 | 0.00 | 0.02 | 0.00 | 79 | 1013.8 |
| 20260506230303 | 50 | 89 | 0.0 | 2.0 | 0.00 | 0.02 | 0.00 | 79 | 1013.9 |
| 20260506230212 | 50 | 89 | 0.0 | 2.0 | 0.00 | 0.02 | 0.00 | 79 | 1013.9 |
| 20260506230103 | 50 | 97 | 0.0 | 2.0 | 0.00 | 0.02 | 0.00 | 79 | 1013.9 |
| 20260506230008 | 50 | 97 | 0.0 | 2.0 | 0.00 | 0.02 | 0.00 | 79 | 1013.9 |
| 20260506225903 | 50 | 98 | 0.0 | 2.0 | 0.00 | 0.02 | 0.02 | 79 | 1013.9 |
| 20260506225703 | 50 | 92 | 0.0 | 2.0 | 0.00 | 0.02 | 0.02 | 79 | 1013.9 |
| 20260506225603 | 50 | 93 | 0.0 | 2.0 | 0.00 | 0.02 | 0.02 | 79 | 1013.8 |
| 20260506225504 | 50 | 94 | 0.0 | 2.0 | 0.00 | 0.02 | 0.02 | 79 | 1013.9 |
| 20260506225403 | 50 | 94 | 0.0 | 2.0 | 0.00 | 0.02 | 0.02 | 79 | 1014.0 |
| 20260506225315 | 50 | 94 | 0.0 | 2.0 | 0.00 | 0.02 | 0.02 | 79 | 1014.0 |
| 20260506225305 | 50 | 95 | 0.0 | 3.0 | 0.00 | 0.02 | 0.02 | 79 | 1013.9 |
| 20260506225203 | 50 | 96 | 1.0 | 3.0 | 0.00 | 0.02 | 0.02 | 79 | 1013.8 |
| 20260506225003 | 50 | 105 | 1.0 | 3.0 | 0.00 | 0.02 | 0.02 | 79 | 1013.9 |
| 20260506224903 | 50 | 102 | 1.0 | 3.0 | 0.00 | 0.02 | 0.02 | 79 | 1013.9 |
| 20260506224803 | 50 | 106 | 1.0 | 3.0 | 0.00 | 0.02 | 0.02 | 79 | 1013.7 |
| 20260506224703 | 50 | 107 | 1.0 | 3.0 | 0.00 | 0.02 | 0.02 | 79 | 1013.9 |
| 20260506224603 | 50 | 111 | 1.0 | 3.0 | 0.00 | 0.02 | 0.02 | 79 | 1013.8 |
| 20260506224514 | 50 | 111 | 1.0 | 3.0 | 0.00 | 0.02 | 0.02 | 79 | 1013.8 |
| 20260506224503 | 50 | 112 | 1.0 | 3.0 | 0.00 | 0.02 | 0.02 | 79 | 1013.8 |
| 20260506224403 | 50 | 113 | 1.0 | 3.0 | 0.00 | 0.02 | 0.02 | 79 | 1013.9 |
| 20260506224203 | 50 | 115 | 1.0 | 3.0 | 0.00 | 0.02 | 0.02 | 79 | 1013.8 |
| 20260506224103 | 50 | 106 | 1.0 | 2.0 | 0.00 | 0.02 | 0.02 | 79 | 1013.8 |
| 20260506224003 | 50 | 110 | 0.0 | 2.0 | 0.00 | 0.02 | 0.02 | 79 | 1013.8 |
| 20260506223915 | 50 | 110 | 0.0 | 2.0 | 0.00 | 0.02 | 0.02 | 79 | 1013.8 |
| 20260506223903 | 51 | 118 | 0.0 | 2.0 | 0.00 | 0.02 | 0.02 | 79 | 1013.7 |
| 20260506223803 | 51 | 118 | 0.0 | 2.0 | 0.00 | 0.02 | 0.02 | 79 | 1013.8 |
| 20260506223603 | 51 | 113 | 0.0 | 2.0 | 0.00 | 0.02 | 0.02 | 79 | 1013.7 |
| 20260506223503 | 51 | 110 | 0.0 | 3.0 | 0.00 | 0.02 | 0.02 | 79 | 1014.0 |
| 20260506223403 | 51 | 107 | 1.0 | 3.0 | 0.00 | 0.02 | 0.02 | 79 | 1013.7 |
| 20260506223317 | 51 | 107 | 1.0 | 3.0 | 0.00 | 0.02 | 0.02 | 79 | 1013.7 |
| 20260506223303 | 51 | 109 | 1.0 | 3.0 | 0.00 | 0.02 | 0.02 | 79 | 1013.7 |
| 20260506223203 | 51 | 107 | 1.0 | 3.0 | 0.00 | 0.02 | 0.02 | 79 | 1013.8 |
| 20260506223003 | 51 | 104 | 1.0 | 3.0 | 0.00 | 0.02 | 0.02 | 79 | 1013.6 |
| 20260506222904 | 50 | 99 | 1.0 | 3.0 | 0.00 | 0.02 | 0.02 | 79 | 1013.6 |
| 20260506222803 | 50 | 94 | 1.0 | 3.0 | 0.00 | 0.02 | 0.02 | 79 | 1013.7 |
| 20260506222703 | 50 | 89 | 1.0 | 3.0 | 0.00 | 0.02 | 0.02 | 78 | 1013.7 |
| 20260506222603 | 50 | 91 | 1.0 | 3.0 | 0.00 | 0.02 | 0.02 | 78 | 1013.7 |
| 20260506222503 | 50 | 98 | 1.0 | 3.0 | 0.00 | 0.02 | 0.02 | 78 | 1013.8 |
| 20260506222403 | 50 | 95 | 1.0 | 3.0 | 0.00 | 0.02 | 0.02 | 78 | 1013.6 |
| 20260506222305 | 50 | 86 | 1.0 | 3.0 | 0.00 | 0.02 | 0.02 | 78 | 1013.6 |
| 20260506222203 | 50 | 86 | 0.0 | 3.0 | 0.00 | 0.02 | 0.02 | 78 | 1013.7 |
| 20260506222103 | 50 | 83 | 0.0 | 3.0 | 0.00 | 0.02 | 0.02 | 78 | 1013.7 |
| 20260506222004 | 50 | 84 | 0.0 | 3.0 | 0.00 | 0.02 | 0.02 | 78 | 1013.8 |
| 20260506221904 | 50 | 88 | 0.0 | 3.0 | 0.00 | 0.02 | 0.02 | 78 | 1013.8 |
| 20260506221803 | 50 | 92 | 0.0 | 3.0 | 0.00 | 0.02 | 0.02 | 78 | 1013.7 |
| 20260506221714 | 50 | 92 | 0.0 | 3.0 | 0.00 | 0.02 | 0.02 | 78 | 1013.7 |
| 20260506221703 | 50 | 96 | 0.0 | 3.0 | 0.00 | 0.02 | 0.02 | 79 | 1013.6 |
| 20260506221603 | 50 | 90 | 0.0 | 3.0 | 0.00 | 0.02 | 0.02 | 79 | 1013.6 |
| 20260506221415 | 50 | 83 | 0.0 | 3.0 | 0.00 | 0.02 | 0.02 | 79 | 1013.9 |
| 20260506221403 | 50 | 80 | 0.0 | 3.0 | 0.00 | 0.02 | 0.02 | 79 | 1013.9 |
| 20260506221303 | 50 | 87 | 0.0 | 3.0 | 0.00 | 0.02 | 0.02 | 79 | 1013.6 |
| 20260506221103 | 50 | 91 | 0.0 | 3.0 | 0.00 | 0.02 | 0.02 | 79 | 1013.7 |
| 20260506221003 | 50 | 91 | 0.0 | 3.0 | 0.00 | 0.02 | 0.02 | 79 | 1013.7 |
| 20260506220903 | 51 | 94 | 0.0 | 3.0 | 0.00 | 0.02 | 0.02 | 79 | 1013.8 |
| 20260506220803 | 51 | 98 | 0.0 | 3.0 | 0.00 | 0.02 | 0.02 | 79 | 1013.7 |
| 20260506220704 | 51 | 99 | 1.0 | 3.0 | 0.00 | 0.02 | 0.02 | 79 | 1013.7 |
| 20260506220614 | 51 | 99 | 1.0 | 3.0 | 0.00 | 0.02 | 0.02 | 79 | 1013.7 |
| 20260506220603 | 51 | 100 | 1.0 | 4.0 | 0.00 | 0.02 | 0.02 | 79 | 1013.6 |
| 20260506220503 | 51 | 89 | 1.0 | 4.0 | 0.00 | 0.02 | 0.02 | 79 | 1013.7 |
| 20260506220303 | 51 | 87 | 1.0 | 4.0 | 0.00 | 0.02 | 0.02 | 79 | 1013.6 |
| 20260506220203 | 51 | 80 | 1.0 | 4.0 | 0.00 | 0.02 | 0.02 | 79 | 1013.5 |
| 20260506220003 | 51 | 74 | 1.0 | 4.0 | 0.00 | 0.02 | 0.02 | 79 | 1013.6 |
| 20260506215903 | 51 | 76 | 1.0 | 4.0 | 0.00 | 0.02 | 0.02 | 79 | 1013.7 |
| 20260506215803 | 51 | 74 | 1.0 | 4.0 | 0.00 | 0.02 | 0.02 | 79 | 1013.5 |
| 20260506215704 | 51 | 74 | 1.0 | 4.0 | 0.00 | 0.02 | 0.02 | 79 | 1013.5 |
| 20260506215604 | 51 | 76 | 1.0 | 4.0 | 0.00 | 0.02 | 0.02 | 79 | 1013.7 |
| 20260506215503 | 51 | 82 | 1.0 | 4.0 | 0.00 | 0.02 | 0.02 | 79 | 1013.6 |
| 20260506215417 | 51 | 82 | 1.0 | 4.0 | 0.00 | 0.02 | 0.02 | 79 | 1013.6 |
| 20260506215403 | 51 | 86 | 1.0 | 3.0 | 0.00 | 0.02 | 0.02 | 79 | 1013.6 |
| 20260506215306 | 51 | 84 | 1.0 | 3.0 | 0.00 | 0.02 | 0.02 | 79 | 1013.6 |
| 20260506215103 | 51 | 89 | 1.0 | 3.0 | 0.00 | 0.02 | 0.02 | 79 | 1013.7 |
| 20260506215003 | 51 | 93 | 1.0 | 3.0 | 0.00 | 0.02 | 0.02 | 78 | 1013.5 |
| 20260506214903 | 51 | 91 | 1.0 | 3.0 | 0.00 | 0.02 | 0.02 | 78 | 1013.5 |
| 20260506214814 | 51 | 91 | 1.0 | 3.0 | 0.00 | 0.02 | 0.02 | 78 | 1013.5 |
| 20260506214803 | 51 | 88 | 1.0 | 3.0 | 0.00 | 0.02 | 0.02 | 78 | 1013.5 |
| 20260506214703 | 51 | 92 | 1.0 | 3.0 | 0.00 | 0.02 | 0.02 | 78 | 1013.5 |
| 20260506214503 | 51 | 83 | 1.0 | 3.0 | 0.00 | 0.02 | 0.02 | 78 | 1013.5 |
| 20260506214404 | 51 | 85 | 1.0 | 3.0 | 0.00 | 0.02 | 0.02 | 78 | 1013.3 |
| 20260506214303 | 51 | 89 | 1.0 | 3.0 | 0.00 | 0.02 | 0.02 | 78 | 1013.6 |
| 20260506214215 | 51 | 89 | 1.0 | 3.0 | 0.00 | 0.02 | 0.02 | 78 | 1013.6 |
| 20260506214203 | 51 | 91 | 0.0 | 3.0 | 0.00 | 0.02 | 0.02 | 78 | 1013.6 |
| 20260506214103 | 51 | 93 | 1.0 | 3.0 | 0.00 | 0.02 | 0.02 | 78 | 1013.6 |
| 20260506213903 | 51 | 80 | 1.0 | 4.0 | 0.00 | 0.02 | 0.02 | 79 | 1013.6 |
| 20260506213815 | 51 | 80 | 1.0 | 4.0 | 0.00 | 0.02 | 0.02 | 79 | 1013.6 |
| 20260506213803 | 51 | 78 | 1.0 | 4.0 | 0.00 | 0.02 | 0.02 | 78 | 1013.5 |
| 20260506213703 | 51 | 68 | 1.0 | 4.0 | 0.00 | 0.02 | 0.02 | 78 | 1013.5 |
| 20260506213503 | 51 | 73 | 1.0 | 4.0 | 0.00 | 0.02 | 0.02 | 78 | 1013.6 |
| 20260506213403 | 51 | 66 | 1.0 | 4.0 | 0.00 | 0.02 | 0.02 | 78 | 1013.5 |
| 20260506213303 | 51 | 64 | 1.0 | 4.0 | 0.00 | 0.02 | 0.02 | 78 | 1013.5 |
| 20260506213203 | 51 | 61 | 1.0 | 4.0 | 0.00 | 0.02 | 0.02 | 79 | 1013.6 |
| 20260506213103 | 51 | 54 | 1.0 | 4.0 | 0.00 | 0.02 | 0.02 | 79 | 1013.6 |
| 20260506213003 | 51 | 62 | 1.0 | 4.0 | 0.00 | 0.02 | 0.02 | 79 | 1013.5 |
| 20260506212917 | 51 | 62 | 1.0 | 4.0 | 0.00 | 0.02 | 0.02 | 79 | 1013.5 |
| 20260506212903 | 51 | 63 | 1.0 | 4.0 | 0.00 | 0.02 | 0.02 | 79 | 1013.3 |
| 20260506212816 | 51 | 63 | 1.0 | 4.0 | 0.00 | 0.02 | 0.02 | 79 | 1013.3 |
| 20260506212803 | 51 | 65 | 1.0 | 4.0 | 0.00 | 0.02 | 0.02 | 79 | 1013.5 |
| 20260506212613 | 51 | 68 | 1.0 | 4.0 | 0.00 | 0.02 | 0.02 | 79 | 1013.4 |
| 20260506212503 | 51 | 66 | 1.0 | 4.0 | 0.00 | 0.02 | 0.02 | 79 | 1013.4 |
| 20260506212306 | 51 | 76 | 1.0 | 4.0 | 0.00 | 0.02 | 0.02 | 79 | 1013.4 |
| 20260506212217 | 51 | 76 | 1.0 | 4.0 | 0.00 | 0.02 | 0.02 | 79 | 1013.4 |
| 20260506212203 | 51 | 86 | 1.0 | 4.0 | 0.00 | 0.02 | 0.02 | 78 | 1013.7 |
| 20260506212103 | 51 | 92 | 1.0 | 4.0 | 0.00 | 0.02 | 0.02 | 79 | 1013.5 |
| 20260506211903 | 51 | 59 | 1.0 | 6.0 | 0.00 | 0.02 | 0.02 | 78 | 1013.6 |
| 20260506211804 | 51 | 51 | 1.0 | 6.0 | 0.00 | 0.02 | 0.02 | 79 | 1013.7 |
| 20260506211704 | 51 | 50 | 1.0 | 6.0 | 0.00 | 0.02 | 0.02 | 79 | 1013.6 |
| 20260506211603 | 51 | 47 | 1.0 | 6.0 | 0.00 | 0.02 | 0.02 | 79 | 1013.5 |
| 20260506211512 | 51 | 47 | 1.0 | 6.0 | 0.00 | 0.02 | 0.02 | 79 | 1013.5 |
| 20260506211503 | 51 | 50 | 0.0 | 6.0 | 0.00 | 0.02 | 0.02 | 79 | 1013.6 |
| 20260506211403 | 51 | 52 | 1.0 | 6.0 | 0.00 | 0.02 | 0.02 | 79 | 1013.5 |
| 20260506211203 | 51 | 41 | 1.0 | 6.0 | 0.00 | 0.02 | 0.02 | 79 | 1013.6 |
| 20260506211103 | 51 | 46 | 1.0 | 6.0 | 0.00 | 0.02 | 0.02 | 79 | 1013.3 |
| 20260506211003 | 51 | 44 | 1.0 | 6.0 | 0.00 | 0.02 | 0.02 | 79 | 1013.4 |
| 20260506210903 | 51 | 56 | 1.0 | 6.0 | 0.00 | 0.02 | 0.02 | 79 | 1013.6 |
| 20260506210803 | 51 | 70 | 1.0 | 6.0 | 0.00 | 0.02 | 0.02 | 79 | 1013.5 |
| 20260506210703 | 51 | 67 | 1.0 | 6.0 | 0.00 | 0.02 | 0.02 | 79 | 1013.5 |
| 20260506210614 | 51 | 67 | 1.0 | 6.0 | 0.00 | 0.02 | 0.02 | 79 | 1013.5 |
| 20260506210603 | 51 | 65 | 1.0 | 6.0 | 0.00 | 0.02 | 0.02 | 79 | 1013.5 |
| 20260506210503 | 51 | 66 | 1.0 | 6.0 | 0.00 | 0.02 | 0.02 | 79 | 1013.4 |
| 20260506210303 | 51 | 56 | 1.0 | 6.0 | 0.00 | 0.02 | 0.02 | 79 | 1013.4 |
| 20260506210203 | 51 | 61 | 1.0 | 3.0 | 0.00 | 0.02 | 0.02 | 79 | 1013.5 |
| 20260506210118 | 51 | 61 | 1.0 | 3.0 | 0.00 | 0.02 | 0.02 | 79 | 1013.5 |
| 20260506210003 | 51 | 61 | 1.0 | 3.0 | 0.00 | 0.02 | 0.02 | 79 | 1013.3 |
| 20260506205803 | 51 | 40 | 1.0 | 3.0 | 0.00 | 0.02 | 0.02 | 79 | 1013.5 |
| 20260506205704 | 51 | 36 | 1.0 | 3.0 | 0.00 | 0.02 | 0.02 | 79 | 1013.5 |
| 20260506205615 | 51 | 36 | 1.0 | 3.0 | 0.00 | 0.02 | 0.02 | 79 | 1013.5 |
| 20260506205603 | 51 | 25 | 1.0 | 3.0 | 0.00 | 0.02 | 0.02 | 79 | 1013.5 |
| 20260506205503 | 51 | 23 | 1.0 | 3.0 | 0.00 | 0.02 | 0.02 | 79 | 1013.4 |
| 20260506205305 | 51 | 33 | 1.0 | 3.0 | 0.00 | 0.02 | 0.02 | 79 | 1013.4 |
| 20260506205203 | 51 | 44 | 1.0 | 3.0 | 0.00 | 0.02 | 0.02 | 79 | 1013.6 |
| 20260506205103 | 51 | 50 | 1.0 | 3.0 | 0.00 | 0.02 | 0.02 | 79 | 1013.5 |
| 20260506205003 | 51 | 50 | 1.0 | 3.0 | 0.00 | 0.02 | 0.02 | 80 | 1013.6 |
| 20260506204903 | 51 | 56 | 1.0 | 3.0 | 0.00 | 0.02 | 0.02 | 79 | 1013.5 |
| 20260506204814 | 51 | 56 | 1.0 | 3.0 | 0.00 | 0.02 | 0.02 | 79 | 1013.5 |
| 20260506204804 | 51 | 73 | 1.0 | 3.0 | 0.00 | 0.02 | 0.02 | 80 | 1013.4 |
| 20260506204703 | 51 | 82 | 1.0 | 3.0 | 0.00 | 0.02 | 0.02 | 80 | 1013.4 |
| 20260506204503 | 51 | 93 | 1.0 | 3.0 | 0.00 | 0.02 | 0.02 | 80 | 1013.5 |
| 20260506204403 | 51 | 95 | 1.0 | 3.0 | 0.00 | 0.02 | 0.02 | 80 | 1013.3 |
| 20260506204303 | 51 | 93 | 1.0 | 3.0 | 0.00 | 0.02 | 0.02 | 80 | 1013.4 |
| 20260506204206 | 51 | 93 | 1.0 | 3.0 | 0.00 | 0.02 | 0.02 | 80 | 1013.4 |
| 20260506204114 | 51 | 91 | 1.0 | 3.0 | 0.00 | 0.02 | 0.02 | 79 | 1013.2 |
| 20260506204103 | 51 | 86 | 1.0 | 3.0 | 0.00 | 0.02 | 0.02 | 79 | 1013.3 |
| 20260506204003 | 51 | 83 | 1.0 | 4.0 | 0.00 | 0.02 | 0.02 | 79 | 1013.5 |
| 20260506203808 | 51 | 76 | 1.0 | 4.0 | 0.00 | 0.02 | 0.02 | 79 | 1013.2 |
| 20260506203704 | 51 | 60 | 1.0 | 4.0 | 0.00 | 0.02 | 0.02 | 79 | 1013.3 |
| 20260506203516 | 51 | 62 | 1.0 | 4.0 | 0.00 | 0.02 | 0.02 | 79 | 1013.4 |
| 20260506203503 | 51 | 62 | 1.0 | 4.0 | 0.00 | 0.02 | 0.02 | 79 | 1013.3 |
| 20260506203404 | 51 | 66 | 1.0 | 4.0 | 0.00 | 0.02 | 0.02 | 79 | 1013.2 |
| 20260506203203 | 51 | 76 | 1.0 | 4.0 | 0.00 | 0.02 | 0.02 | 79 | 1013.5 |
| 20260506203103 | 51 | 74 | 1.0 | 4.0 | 0.00 | 0.02 | 0.02 | 79 | 1013.3 |
| 20260506203014 | 51 | 74 | 1.0 | 4.0 | 0.00 | 0.02 | 0.02 | 79 | 1013.3 |
| 20260506203003 | 51 | 71 | 1.0 | 4.0 | 0.00 | 0.02 | 0.02 | 79 | 1013.3 |
| 20260506202912 | 51 | 71 | 1.0 | 4.0 | 0.00 | 0.02 | 0.02 | 79 | 1013.3 |
| 20260506202903 | 51 | 70 | 1.0 | 4.0 | 0.00 | 0.02 | 0.02 | 79 | 1013.3 |
| 20260506202603 | 51 | 82 | 1.0 | 3.0 | 0.00 | 0.02 | 0.02 | 79 | 1013.1 |
| 20260506202503 | 51 | 82 | 1.0 | 3.0 | 0.00 | 0.02 | 0.02 | 79 | 1013.2 |
| 20260506202416 | 51 | 82 | 1.0 | 3.0 | 0.00 | 0.02 | 0.02 | 79 | 1013.2 |
| 20260506202403 | 51 | 76 | 1.0 | 3.0 | 0.00 | 0.02 | 0.02 | 79 | 1013.1 |
| 20260506202306 | 51 | 65 | 1.0 | 3.0 | 0.00 | 0.02 | 0.02 | 79 | 1013.3 |
| 20260506202212 | 51 | 65 | 1.0 | 3.0 | 0.00 | 0.02 | 0.02 | 79 | 1013.3 |
| 20260506202103 | 51 | 71 | 1.0 | 3.0 | 0.00 | 0.02 | 0.02 | 79 | 1013.2 |
| 20260506201903 | 51 | 82 | 1.0 | 4.0 | 0.00 | 0.02 | 0.02 | 79 | 1013.1 |
| 20260506201803 | 51 | 63 | 1.0 | 4.0 | 0.00 | 0.02 | 0.02 | 79 | 1013.1 |
| 20260506201703 | 51 | 69 | 1.0 | 4.0 | 0.00 | 0.02 | 0.02 | 79 | 1013.1 |
| 20260506201614 | 51 | 69 | 1.0 | 4.0 | 0.00 | 0.02 | 0.02 | 79 | 1013.1 |
| 20260506201603 | 51 | 65 | 1.0 | 4.0 | 0.00 | 0.02 | 0.02 | 79 | 1013.1 |
| 20260506201503 | 51 | 74 | 1.0 | 7.0 | 0.00 | 0.02 | 0.02 | 79 | 1013.2 |
| 20260506201417 | 51 | 74 | 1.0 | 7.0 | 0.00 | 0.02 | 0.02 | 79 | 1013.2 |
| 20260506201303 | 51 | 83 | 1.0 | 7.0 | 0.00 | 0.02 | 0.02 | 79 | 1013.1 |
| 20260506201103 | 51 | 73 | 1.0 | 7.0 | 0.00 | 0.02 | 0.02 | 79 | 1013.2 |
| 20260506201003 | 51 | 74 | 1.0 | 7.0 | 0.00 | 0.02 | 0.02 | 79 | 1013.2 |
| 20260506200903 | 51 | 77 | 1.0 | 7.0 | 0.00 | 0.02 | 0.02 | 79 | 1013.2 |
| 20260506200803 | 51 | 85 | 1.0 | 7.0 | 0.00 | 0.02 | 0.02 | 79 | 1013.3 |
| 20260506200703 | 51 | 82 | 1.0 | 7.0 | 0.00 | 0.02 | 0.02 | 79 | 1013.2 |
| 20260506200603 | 51 | 98 | 1.0 | 7.0 | 0.00 | 0.02 | 0.02 | 79 | 1013.2 |
| 20260506200514 | 51 | 98 | 1.0 | 7.0 | 0.00 | 0.02 | 0.02 | 79 | 1013.2 |
| 20260506200503 | 51 | 101 | 1.0 | 7.0 | 0.00 | 0.02 | 0.02 | 78 | 1013.2 |
| 20260506200403 | 51 | 149 | 1.0 | 7.0 | 0.00 | 0.02 | 0.02 | 78 | 1013.2 |
| 20260506200203 | 51 | 126 | 1.0 | 4.0 | 0.00 | 0.02 | 0.02 | 78 | 1013.1 |
| 20260506200004 | 51 | 145 | 1.0 | 4.0 | 0.00 | 0.02 | 0.02 | 78 | 1013.0 |
| 20260506195903 | 51 | 148 | 1.0 | 4.0 | 0.00 | 0.02 | 0.02 | 78 | 1013.3 |
| 20260506195803 | 51 | 144 | 1.0 | 4.0 | 0.00 | 0.02 | 0.02 | 78 | 1013.1 |
| 20260506195703 | 51 | 134 | 1.0 | 4.0 | 0.00 | 0.02 | 0.02 | 78 | 1013.1 |
| 20260506195603 | 51 | 124 | 1.0 | 4.0 | 0.00 | 0.02 | 0.02 | 78 | 1013.1 |
| 20260506195503 | 51 | 118 | 1.0 | 4.0 | 0.00 | 0.02 | 0.02 | 78 | 1013.0 |
| 20260506195403 | 51 | 95 | 1.0 | 4.0 | 0.00 | 0.02 | 0.02 | 79 | 1013.2 |
| 20260506195305 | 51 | 100 | 1.0 | 4.0 | 0.00 | 0.02 | 0.02 | 79 | 1013.0 |
| 20260506195204 | 51 | 102 | 1.0 | 4.0 | 0.00 | 0.02 | 0.02 | 79 | 1013.1 |
| 20260506195104 | 51 | 60 | 1.0 | 3.0 | 0.00 | 0.02 | 0.02 | 79 | 1013.1 |
| 20260506195003 | 51 | 77 | 1.0 | 3.0 | 0.00 | 0.02 | 0.02 | 79 | 1012.9 |
| 20260506194903 | 51 | 75 | 1.0 | 3.0 | 0.00 | 0.02 | 0.02 | 79 | 1013.0 |
| 20260506194803 | 51 | 108 | 1.0 | 4.0 | 0.00 | 0.02 | 0.02 | 79 | 1013.2 |
| 20260506194704 | 51 | 90 | 1.0 | 4.0 | 0.00 | 0.02 | 0.02 | 79 | 1012.9 |
| 20260506194604 | 51 | 108 | 1.0 | 4.0 | 0.00 | 0.02 | 0.02 | 79 | 1012.9 |
| 20260506194503 | 51 | 99 | 1.0 | 4.0 | 0.00 | 0.02 | 0.02 | 79 | 1012.9 |
| 20260506194403 | 51 | 104 | 1.0 | 4.0 | 0.00 | 0.02 | 0.02 | 79 | 1012.9 |
| 20260506194313 | 51 | 104 | 1.0 | 4.0 | 0.00 | 0.02 | 0.02 | 79 | 1012.9 |
| 20260506194303 | 51 | 115 | 1.0 | 4.0 | 0.00 | 0.02 | 0.02 | 79 | 1013.0 |
| 20260506194217 | 51 | 115 | 1.0 | 4.0 | 0.00 | 0.02 | 0.02 | 79 | 1013.0 |
| 20260506194203 | 51 | 97 | 1.0 | 4.0 | 0.00 | 0.02 | 0.02 | 79 | 1013.1 |
| 20260506193903 | 51 | 101 | 1.0 | 4.0 | 0.00 | 0.02 | 0.02 | 79 | 1012.8 |
| 20260506193803 | 51 | 101 | 1.0 | 4.0 | 0.00 | 0.02 | 0.02 | 79 | 1012.8 |
| 20260506193714 | 51 | 101 | 1.0 | 4.0 | 0.00 | 0.02 | 0.02 | 79 | 1012.8 |
| 20260506193703 | 51 | 103 | 1.0 | 4.0 | 0.00 | 0.02 | 0.02 | 80 | 1012.9 |
| 20260506193613 | 51 | 103 | 1.0 | 4.0 | 0.00 | 0.02 | 0.02 | 80 | 1012.9 |
| 20260506193603 | 51 | 78 | 1.0 | 4.0 | 0.00 | 0.02 | 0.02 | 80 | 1012.9 |
| 20260506193303 | 51 | 3 | 1.0 | 4.0 | 0.00 | 0.02 | 0.02 | 80 | 1012.6 |
| 20260506193212 | 51 | 3 | 1.0 | 4.0 | 0.00 | 0.02 | 0.02 | 80 | 1012.6 |
| 20260506193203 | 51 | 356 | 1.0 | 3.0 | 0.00 | 0.02 | 0.02 | 80 | 1012.8 |
| 20260506193103 | 51 | 354 | 1.0 | 3.0 | 0.00 | 0.02 | 0.02 | 79 | 1012.6 |
| 20260506192903 | 51 | 343 | 1.0 | 3.0 | 0.00 | 0.02 | 0.02 | 79 | 1012.7 |
| 20260506192803 | 51 | 343 | 1.0 | 3.0 | 0.00 | 0.02 | 0.02 | 79 | 1012.7 |
| 20260506192703 | 51 | 343 | 1.0 | 3.0 | 0.00 | 0.02 | 0.02 | 80 | 1012.6 |